GEFSMA_prec_meanprecacc_288.txt.gz
Total_Precipitation_Accumulation
0.96 0.97 0.93 1.01 0.98 0.99 1.04 1.02 0.89 0.90 0.86 0.74 0.72 0.74 0.81 0.83 0.97 1.09 1.31 1.73 2.35 2.93 3.12 2.91 2.48 2.19 2.11 2.10 2.03 2.01 1.98 2.00 2.16 2.35 2.24 2.14 2.19 2.19 2.14 2.40 2.56 2.81 2.99
0.79 0.91 0.93 1.02 0.97 1.00 1.07 0.96 0.90 0.94 0.94 0.83 0.78 0.79 0.80 0.84 0.93 1.07 1.21 1.47 1.83 2.44 3.07 3.23 2.93 2.58 2.35 2.34 2.34 2.36 2.17 2.04 2.07 2.30 2.34 2.18 2.16 2.09 2.07 2.23 2.48 2.62 2.94
0.73 0.85 0.94 0.98 0.99 1.00 1.01 1.03 1.03 0.98 0.91 0.86 0.87 0.85 0.81 0.83 1.00 1.13 1.19 1.36 1.42 1.53 2.16 2.90 3.21 3.07 2.82 2.80 2.71 2.56 2.38 2.21 2.07 2.15 2.28 2.18 2.11 1.92 2.01 2.08 2.15 2.18 2.55
0.78 1.00 1.07 0.98 1.03 1.13 1.18 1.22 1.19 1.11 1.03 1.03 1.06 1.03 0.94 0.97 1.14 1.22 1.18 1.16 1.22 1.16 1.35 1.80 2.26 2.63 2.97 3.07 3.05 2.84 2.61 2.42 2.12 2.08 2.12 2.11 2.00 1.80 1.84 1.95 1.98 2.03 2.16
0.98 1.17 1.26 1.15 1.13 1.29 1.29 1.19 1.25 1.31 1.27 1.31 1.23 1.25 1.21 1.21 1.20 1.14 1.12 1.19 1.24 1.24 1.30 1.24 1.43 1.75 2.38 2.88 3.20 3.35 3.04 2.83 2.51 2.32 2.23 2.05 1.91 1.80 1.77 1.80 1.84 1.92 1.97
1.20 1.37 1.50 1.46 1.40 1.55 1.58 1.46 1.59 1.67 1.58 1.64 1.51 1.43 1.38 1.34 1.27 1.24 1.23 1.29 1.41 1.33 1.38 1.32 1.30 1.14 1.47 2.05 2.71 3.21 3.24 3.13 2.89 2.54 2.35 2.00 1.89 1.76 1.70 1.69 1.72 1.83 1.93
1.60 1.73 1.72 1.94 2.00 1.99 2.03 2.00 2.18 2.24 1.96 1.81 2.18 2.14 1.74 1.41 1.27 1.34 1.43 1.47 1.59 1.61 1.58 1.54 1.51 1.29 1.17 1.34 1.87 2.81 3.13 3.10 2.94 2.67 2.56 2.30 1.98 1.80 1.71 1.71 1.76 1.74 1.86
1.95 1.88 1.99 2.23 2.28 2.39 2.50 2.36 2.53 2.66 2.34 2.05 2.51 3.02 2.61 2.13 1.48 1.23 1.34 1.50 1.68 1.72 1.66 1.54 1.54 1.51 1.41 1.40 1.42 2.05 2.66 3.01 2.99 2.83 2.70 2.63 2.22 1.98 1.82 1.78 1.80 1.76 1.74
2.38 2.25 2.22 2.38 2.42 2.51 2.72 2.76 2.71 2.86 2.83 2.47 2.43 3.02 3.03 2.64 2.17 1.60 1.41 1.48 1.67 1.79 1.85 1.82 1.65 1.65 1.56 1.60 1.68 1.57 1.79 2.31 2.79 2.82 2.72 2.68 2.48 2.20 1.93 1.83 1.84 1.76 1.61
2.55 2.48 2.44 2.52 2.57 2.56 2.67 2.72 2.71 3.00 3.24 3.02 2.69 2.46 2.44 2.47 2.51 2.13 1.71 1.55 1.67 1.79 1.94 1.86 1.88 1.94 1.89 1.85 1.85 1.59 1.44 1.60 2.08 2.53 2.70 2.78 2.64 2.39 2.10 1.96 1.99 1.85 1.73
2.31 2.22 2.33 2.49 2.53 2.56 2.57 2.73 2.85 3.11 3.17 3.11 2.99 2.81 2.63 2.46 2.10 2.18 2.11 1.84 1.77 1.70 1.83 2.00 2.09 2.14 2.08 2.20 2.30 1.80 1.43 1.35 1.63 2.09 2.56 2.78 2.87 2.78 2.48 2.18 2.06 2.04 2.03
2.16 2.05 2.13 2.25 2.35 2.42 2.39 2.44 2.62 2.81 3.07 3.20 3.12 2.93 2.87 2.80 2.58 2.39 2.09 1.94 2.01 1.88 1.77 1.80 1.92 2.02 2.17 2.28 2.18 1.98 1.51 1.34 1.45 1.58 1.87 2.36 2.73 2.93 2.84 2.68 2.48 2.32 2.32
2.12 2.10 2.02 2.07 2.16 2.21 2.30 2.48 2.49 2.57 2.77 2.98 2.98 2.92 2.91 2.75 2.65 2.64 2.39 2.02 1.94 1.86 1.79 1.74 1.73 1.83 1.94 2.04 2.07 1.99 1.58 1.46 1.37 1.33 1.32 1.44 1.85 2.35 2.77 2.97 2.93 2.70 2.68
1.72 1.70 1.75 1.85 2.01 2.09 2.19 2.36 2.44 2.45 2.50 2.56 2.58 2.74 2.84 2.74 2.53 2.45 2.44 2.47 2.21 1.99 1.81 1.71 1.65 1.65 1.74 1.77 1.90 1.94 1.51 1.37 1.28 1.21 1.15 1.05 1.15 1.42 1.90 2.32 2.45 2.54 2.75
1.30 1.33 1.40 1.54 1.75 1.88 1.93 2.07 2.26 2.26 2.31 2.32 2.38 2.45 2.48 2.54 2.41 2.22 2.18 2.28 2.41 2.23 2.06 1.86 1.64 1.44 1.51 1.52 1.61 1.44 1.38 1.32 1.19 1.12 1.06 0.98 0.92 1.01 1.30 1.66 1.81 1.74 1.80
1.22 1.29 1.30 1.36 1.50 1.59 1.68 1.84 1.99 2.09 2.15 2.12 2.09 2.16 2.21 2.24 2.26 2.23 2.20 2.21 2.22 2.19 2.09 1.89 1.59 1.31 1.35 1.42 1.59 1.38 1.41 1.52 1.31 1.14 1.00 0.98 0.96 0.94 1.02 1.16 1.25 1.16 1.11
1.25 1.28 1.33 1.35 1.36 1.44 1.49 1.59 1.73 1.87 1.90 1.92 1.81 1.84 1.97 2.04 2.23 2.26 2.23 2.19 2.18 2.10 1.96 1.86 1.61 1.39 1.35 1.43 1.49 1.41 1.43 1.44 1.29 1.22 1.10 1.03 0.94 0.99 1.03 1.06 1.13 1.05 0.91
1.14 1.20 1.30 1.25 1.23 1.27 1.35 1.46 1.56 1.61 1.70 1.67 1.58 1.60 1.73 1.79 1.95 2.06 2.16 2.07 2.07 2.04 2.03 1.98 1.75 1.54 1.46 1.46 1.52 1.48 1.36 1.33 1.33 1.36 1.24 1.15 1.05 0.97 1.03 1.02 1.12 1.18 1.08
1.07 1.16 1.27 1.36 1.26 1.16 1.25 1.34 1.37 1.39 1.40 1.35 1.34 1.40 1.47 1.54 1.67 1.79 1.89 1.97 1.99 1.93 2.02 2.00 1.79 1.60 1.46 1.41 1.45 1.42 1.36 1.41 1.33 1.39 1.33 1.22 1.17 1.08 1.08 1.07 1.07 1.16 1.16
0.89 0.94 1.08 1.18 1.21 1.16 1.11 1.11 1.14 1.29 1.28 1.18 1.09 1.09 1.11 1.16 1.29 1.44 1.55 1.71 1.87 1.99 2.07 2.09 1.93 1.67 1.48 1.43 1.49 1.54 1.53 1.44 1.46 1.37 1.37 1.34 1.32 1.27 1.19 1.17 1.07 1.06 1.14
0.80 0.85 1.00 1.15 1.19 1.18 1.19 1.19 1.11 1.15 1.20 1.19 1.11 0.99 0.92 0.92 1.03 1.12 1.21 1.48 1.69 1.85 2.00 2.06 1.98 1.80 1.61 1.53 1.49 1.49 1.56 1.65 1.66 1.50 1.45 1.36 1.31 1.16 1.05 1.08 1.07 1.01 1.00
0.74 0.73 0.81 0.96 1.10 1.07 1.25 1.29 1.21 1.11 1.11 1.10 1.09 1.06 1.04 1.00 0.89 0.84 0.90 1.07 1.31 1.52 1.71 1.85 1.89 1.74 1.56 1.52 1.56 1.57 1.56 1.62 1.68 1.53 1.48 1.55 1.48 1.33 1.17 1.06 1.12 1.05 0.99
0.71 0.69 0.74 0.87 1.01 1.19 1.26 1.10 1.17 1.16 1.10 1.10 1.06 1.06 1.09 1.06 1.10 0.98 0.92 0.90 0.92 1.09 1.35 1.57 1.61 1.56 1.63 1.56 1.52 1.48 1.46 1.46 1.48 1.51 1.52 1.55 1.53 1.40 1.22 1.15 1.23 1.17 1.10
0.74 0.74 0.77 0.82 0.89 1.13 1.23 1.08 1.26 1.26 1.23 1.20 1.16 1.17 1.22 1.23 1.17 1.28 1.23 1.10 1.01 1.00 1.11 1.06 1.16 1.45 1.58 1.61 1.61 1.62 1.66 1.56 1.49 1.48 1.41 1.45 1.37 1.31 1.19 1.12 1.17 1.11 1.05
0.77 0.76 0.75 0.75 0.77 0.88 1.01 0.95 1.07 1.18 1.30 1.30 1.17 1.14 1.18 1.19 1.39 1.45 1.31 1.25 1.16 1.10 1.25 1.27 1.29 1.35 1.44 1.45 1.45 1.52 1.58 1.54 1.48 1.42 1.32 1.23 1.18 1.26 1.30 1.20 1.17 1.23 1.17
0.85 0.78 0.74 0.70 0.70 0.72 0.89 0.78 0.86 0.98 1.16 1.31 1.26 1.18 1.33 1.28 1.29 1.25 1.16 1.32 1.27 1.15 1.06 1.03 1.03 1.09 1.11 1.16 1.24 1.27 1.42 1.46 1.40 1.39 1.26 1.22 1.17 1.24 1.30 1.20 1.09 1.09 1.14

GEFSMA_prec_meanprecacc_294.txt.gz
Total_Precipitation_Accumulation
0.98 0.99 0.95 1.02 1.01 1.01 1.06 1.04 0.91 0.92 0.89 0.77 0.74 0.76 0.83 0.84 0.97 1.09 1.33 1.79 2.43 3.03 3.20 2.97 2.53 2.25 2.15 2.13 2.07 2.05 2.00 2.03 2.20 2.37 2.27 2.17 2.22 2.23 2.18 2.44 2.61 2.86 3.04
0.80 0.93 0.95 1.04 0.99 1.03 1.09 0.99 0.94 0.97 0.98 0.87 0.80 0.81 0.81 0.84 0.93 1.07 1.21 1.49 1.86 2.48 3.12 3.28 2.98 2.62 2.39 2.37 2.39 2.41 2.22 2.07 2.10 2.32 2.37 2.20 2.18 2.11 2.09 2.25 2.51 2.66 3.00
0.74 0.88 0.97 1.01 1.01 1.04 1.04 1.05 1.06 1.02 0.95 0.88 0.89 0.87 0.82 0.84 1.00 1.13 1.19 1.36 1.42 1.54 2.18 2.94 3.24 3.12 2.87 2.85 2.77 2.61 2.43 2.25 2.10 2.18 2.31 2.21 2.14 1.95 2.04 2.11 2.18 2.22 2.60
0.80 1.03 1.10 1.00 1.07 1.17 1.19 1.23 1.19 1.12 1.05 1.04 1.07 1.04 0.95 0.98 1.14 1.23 1.18 1.16 1.23 1.16 1.37 1.83 2.29 2.69 3.02 3.14 3.13 2.92 2.67 2.46 2.16 2.12 2.15 2.14 2.04 1.83 1.87 1.98 2.02 2.07 2.21
1.00 1.19 1.27 1.16 1.14 1.30 1.29 1.20 1.26 1.32 1.28 1.32 1.24 1.26 1.21 1.21 1.21 1.15 1.13 1.20 1.24 1.25 1.31 1.25 1.46 1.79 2.44 2.99 3.30 3.44 3.11 2.88 2.56 2.35 2.26 2.07 1.93 1.82 1.80 1.83 1.87 1.96 2.01
1.21 1.38 1.51 1.46 1.40 1.55 1.58 1.47 1.60 1.68 1.60 1.65 1.53 1.44 1.38 1.34 1.28 1.26 1.24 1.31 1.42 1.33 1.38 1.33 1.31 1.16 1.52 2.19 2.83 3.29 3.32 3.18 2.93 2.57 2.39 2.03 1.91 1.77 1.72 1.72 1.75 1.87 1.96
1.61 1.74 1.73 1.95 2.01 2.00 2.04 2.01 2.18 2.25 1.97 1.82 2.20 2.16 1.75 1.42 1.28 1.35 1.44 1.49 1.61 1.63 1.59 1.55 1.52 1.30 1.21 1.47 2.03 2.92 3.20 3.14 2.98 2.70 2.59 2.33 2.02 1.83 1.74 1.74 1.79 1.76 1.89
1.97 1.89 2.00 2.24 2.29 2.40 2.51 2.37 2.54 2.67 2.35 2.06 2.52 3.03 2.62 2.14 1.49 1.24 1.36 1.52 1.70 1.74 1.68 1.55 1.55 1.52 1.43 1.48 1.53 2.14 2.71 3.05 3.04 2.88 2.74 2.65 2.25 2.00 1.84 1.81 1.83 1.80 1.77
2.39 2.26 2.22 2.38 2.43 2.52 2.73 2.77 2.72 2.87 2.84 2.49 2.45 3.03 3.04 2.65 2.19 1.62 1.44 1.50 1.70 1.81 1.87 1.83 1.66 1.66 1.57 1.64 1.72 1.61 1.81 2.35 2.84 2.86 2.76 2.71 2.51 2.22 1.94 1.85 1.86 1.79 1.65
2.56 2.49 2.44 2.53 2.57 2.57 2.67 2.73 2.73 3.02 3.26 3.03 2.72 2.47 2.45 2.48 2.53 2.17 1.75 1.60 1.72 1.83 1.97 1.89 1.91 1.96 1.91 1.87 1.87 1.61 1.45 1.62 2.11 2.56 2.73 2.81 2.67 2.41 2.13 1.99 2.02 1.89 1.78
2.34 2.24 2.33 2.50 2.53 2.56 2.58 2.74 2.86 3.13 3.19 3.12 3.01 2.84 2.65 2.48 2.11 2.20 2.15 1.90 1.83 1.76 1.88 2.04 2.12 2.16 2.09 2.21 2.31 1.82 1.44 1.37 1.66 2.12 2.58 2.81 2.90 2.81 2.52 2.23 2.11 2.10 2.09
2.24 2.11 2.17 2.26 2.36 2.42 2.40 2.46 2.63 2.82 3.08 3.21 3.13 2.96 2.90 2.81 2.59 2.41 2.12 1.97 2.07 1.94 1.83 1.85 1.96 2.05 2.19 2.29 2.20 2.00 1.53 1.37 1.48 1.60 1.89 2.38 2.77 2.98 2.89 2.73 2.53 2.38 2.38
2.18 2.17 2.08 2.11 2.17 2.22 2.31 2.49 2.50 2.58 2.79 2.99 3.01 2.95 2.93 2.76 2.67 2.65 2.40 2.05 1.99 1.92 1.84 1.79 1.76 1.85 1.95 2.06 2.09 2.01 1.59 1.49 1.41 1.36 1.35 1.47 1.91 2.42 2.84 3.04 2.98 2.75 2.73
1.75 1.73 1.78 1.89 2.03 2.11 2.19 2.36 2.45 2.46 2.52 2.58 2.60 2.78 2.87 2.76 2.55 2.46 2.45 2.50 2.25 2.03 1.85 1.75 1.68 1.67 1.76 1.78 1.93 1.96 1.53 1.41 1.32 1.24 1.18 1.07 1.19 1.50 1.98 2.38 2.51 2.58 2.79
1.33 1.36 1.42 1.56 1.76 1.89 1.94 2.07 2.27 2.28 2.35 2.35 2.41 2.48 2.50 2.56 2.43 2.24 2.20 2.30 2.44 2.26 2.08 1.88 1.66 1.46 1.53 1.54 1.64 1.46 1.40 1.35 1.23 1.15 1.09 1.00 0.95 1.05 1.34 1.70 1.86 1.79 1.84
1.25 1.31 1.33 1.38 1.52 1.60 1.69 1.85 2.00 2.10 2.18 2.14 2.12 2.19 2.24 2.27 2.29 2.25 2.22 2.23 2.24 2.22 2.12 1.90 1.60 1.32 1.37 1.45 1.63 1.40 1.43 1.55 1.34 1.16 1.02 1.00 0.97 0.96 1.04 1.18 1.28 1.21 1.15
1.30 1.32 1.36 1.38 1.39 1.45 1.50 1.61 1.76 1.90 1.92 1.93 1.83 1.87 1.99 2.06 2.25 2.28 2.24 2.21 2.20 2.13 1.99 1.88 1.63 1.41 1.37 1.45 1.54 1.44 1.45 1.47 1.32 1.25 1.11 1.05 0.95 1.00 1.04 1.07 1.15 1.08 0.94
1.20 1.26 1.35 1.29 1.26 1.29 1.37 1.48 1.58 1.64 1.72 1.68 1.59 1.61 1.75 1.82 1.97 2.08 2.18 2.09 2.09 2.07 2.06 2.00 1.78 1.57 1.48 1.48 1.56 1.52 1.39 1.36 1.35 1.39 1.26 1.17 1.07 0.99 1.05 1.04 1.14 1.19 1.10
1.15 1.23 1.34 1.41 1.29 1.19 1.28 1.36 1.39 1.43 1.43 1.38 1.36 1.41 1.48 1.55 1.69 1.80 1.90 1.98 2.00 1.94 2.04 2.02 1.82 1.63 1.48 1.42 1.47 1.45 1.40 1.45 1.36 1.42 1.36 1.25 1.20 1.11 1.10 1.09 1.08 1.17 1.18
0.99 1.03 1.15 1.24 1.26 1.20 1.15 1.14 1.16 1.32 1.31 1.21 1.11 1.10 1.13 1.17 1.31 1.45 1.56 1.71 1.88 2.00 2.08 2.10 1.95 1.69 1.50 1.44 1.51 1.57 1.57 1.48 1.49 1.39 1.39 1.36 1.34 1.29 1.20 1.18 1.08 1.07 1.15
0.90 0.95 1.08 1.21 1.26 1.23 1.23 1.23 1.14 1.17 1.22 1.22 1.13 1.01 0.93 0.94 1.04 1.13 1.22 1.49 1.70 1.86 2.01 2.07 1.98 1.80 1.62 1.54 1.51 1.50 1.58 1.67 1.67 1.51 1.46 1.37 1.32 1.17 1.06 1.08 1.08 1.02 1.00
0.85 0.85 0.92 1.04 1.16 1.12 1.30 1.34 1.25 1.13 1.13 1.12 1.10 1.08 1.06 1.02 0.90 0.86 0.92 1.08 1.32 1.52 1.72 1.85 1.89 1.74 1.57 1.53 1.58 1.58 1.57 1.63 1.69 1.54 1.49 1.56 1.49 1.34 1.18 1.07 1.14 1.06 0.99
0.83 0.82 0.87 0.99 1.11 1.28 1.35 1.18 1.26 1.22 1.14 1.13 1.08 1.08 1.11 1.08 1.12 1.00 0.95 0.92 0.94 1.11 1.36 1.57 1.61 1.56 1.63 1.57 1.53 1.49 1.48 1.47 1.49 1.52 1.53 1.56 1.53 1.40 1.22 1.16 1.24 1.18 1.11
0.83 0.84 0.87 0.92 0.99 1.23 1.33 1.16 1.34 1.33 1.28 1.24 1.19 1.20 1.24 1.25 1.20 1.31 1.26 1.14 1.04 1.02 1.13 1.07 1.16 1.45 1.59 1.61 1.62 1.63 1.66 1.57 1.50 1.50 1.43 1.46 1.38 1.32 1.19 1.12 1.18 1.12 1.06
0.83 0.84 0.83 0.85 0.87 0.96 1.11 1.04 1.16 1.26 1.35 1.33 1.21 1.19 1.22 1.21 1.42 1.47 1.34 1.29 1.19 1.12 1.29 1.31 1.32 1.38 1.46 1.46 1.46 1.53 1.59 1.55 1.49 1.45 1.35 1.26 1.20 1.28 1.31 1.21 1.18 1.24 1.18
0.89 0.82 0.80 0.79 0.79 0.81 0.99 0.87 0.97 1.05 1.22 1.35 1.30 1.22 1.37 1.30 1.31 1.27 1.18 1.34 1.29 1.17 1.09 1.06 1.07 1.13 1.15 1.20 1.27 1.29 1.43 1.47 1.40 1.42 1.29 1.24 1.20 1.26 1.31 1.22 1.10 1.10 1.15

GEFSMA_prec_meanprecacc_300.txt.gz
Total_Precipitation_Accumulation
0.99 1.00 0.96 1.04 1.02 1.02 1.07 1.05 0.92 0.92 0.89 0.78 0.75 0.77 0.84 0.86 1.00 1.12 1.39 1.89 2.54 3.16 3.34 3.08 2.60 2.30 2.19 2.16 2.10 2.08 2.03 2.05 2.22 2.40 2.30 2.21 2.27 2.30 2.24 2.53 2.77 3.04 3.19
0.82 0.95 0.97 1.06 1.01 1.04 1.10 1.01 0.96 0.99 0.99 0.87 0.81 0.82 0.82 0.86 0.94 1.08 1.23 1.53 1.93 2.56 3.21 3.38 3.04 2.66 2.42 2.41 2.43 2.45 2.24 2.10 2.12 2.35 2.40 2.23 2.21 2.14 2.12 2.29 2.60 2.78 3.14
0.78 0.91 1.00 1.02 1.02 1.05 1.05 1.07 1.08 1.05 0.98 0.90 0.91 0.88 0.84 0.85 1.01 1.14 1.20 1.37 1.43 1.57 2.25 3.01 3.32 3.17 2.91 2.89 2.81 2.65 2.47 2.28 2.13 2.21 2.34 2.25 2.17 1.98 2.06 2.13 2.22 2.30 2.72
0.83 1.06 1.13 1.02 1.07 1.18 1.21 1.24 1.21 1.13 1.06 1.05 1.09 1.06 0.98 1.00 1.15 1.23 1.18 1.16 1.23 1.16 1.39 1.89 2.37 2.75 3.08 3.20 3.17 2.96 2.71 2.50 2.20 2.14 2.17 2.16 2.06 1.87 1.91 2.02 2.06 2.13 2.31
1.02 1.22 1.30 1.18 1.16 1.32 1.31 1.22 1.27 1.33 1.29 1.33 1.25 1.27 1.24 1.23 1.22 1.15 1.13 1.20 1.25 1.25 1.32 1.28 1.50 1.86 2.52 3.07 3.36 3.51 3.18 2.94 2.61 2.39 2.28 2.10 1.96 1.86 1.85 1.88 1.92 2.03 2.08
1.22 1.39 1.53 1.48 1.42 1.56 1.59 1.48 1.61 1.69 1.61 1.67 1.54 1.45 1.39 1.36 1.29 1.27 1.25 1.31 1.43 1.34 1.39 1.35 1.33 1.18 1.57 2.27 2.92 3.38 3.39 3.25 2.98 2.60 2.42 2.07 1.94 1.81 1.76 1.76 1.81 1.94 2.03
1.62 1.75 1.74 1.96 2.01 2.00 2.04 2.01 2.19 2.25 1.98 1.85 2.22 2.17 1.76 1.43 1.28 1.36 1.45 1.50 1.61 1.63 1.60 1.57 1.53 1.30 1.22 1.52 2.13 3.03 3.28 3.20 3.02 2.74 2.63 2.36 2.06 1.86 1.78 1.78 1.82 1.80 1.92
1.98 1.90 2.01 2.25 2.29 2.41 2.51 2.38 2.55 2.68 2.36 2.07 2.54 3.05 2.64 2.16 1.50 1.25 1.36 1.53 1.71 1.74 1.69 1.56 1.56 1.53 1.45 1.51 1.63 2.23 2.76 3.10 3.09 2.94 2.79 2.71 2.29 2.04 1.87 1.85 1.86 1.82 1.79
2.41 2.28 2.24 2.39 2.43 2.53 2.73 2.77 2.73 2.89 2.86 2.51 2.47 3.05 3.07 2.67 2.21 1.63 1.45 1.52 1.71 1.82 1.88 1.84 1.68 1.67 1.59 1.66 1.78 1.67 1.85 2.39 2.88 2.93 2.85 2.79 2.56 2.26 1.98 1.90 1.91 1.83 1.67
2.58 2.51 2.46 2.54 2.58 2.57 2.67 2.73 2.73 3.03 3.27 3.06 2.75 2.50 2.47 2.50 2.55 2.19 1.77 1.62 1.74 1.84 1.98 1.90 1.92 1.97 1.92 1.88 1.89 1.64 1.48 1.65 2.15 2.61 2.80 2.87 2.73 2.47 2.18 2.05 2.07 1.93 1.81
2.36 2.26 2.35 2.50 2.54 2.57 2.58 2.74 2.87 3.14 3.20 3.14 3.03 2.88 2.69 2.50 2.12 2.21 2.17 1.93 1.87 1.79 1.91 2.06 2.14 2.18 2.11 2.23 2.32 1.84 1.47 1.39 1.70 2.16 2.62 2.85 2.95 2.88 2.58 2.28 2.16 2.14 2.13
2.26 2.14 2.20 2.28 2.36 2.43 2.40 2.46 2.64 2.83 3.08 3.23 3.15 2.98 2.95 2.86 2.63 2.43 2.13 2.00 2.11 2.00 1.89 1.89 1.99 2.06 2.21 2.32 2.22 2.02 1.55 1.39 1.50 1.63 1.92 2.42 2.81 3.04 2.95 2.79 2.59 2.44 2.46
2.21 2.20 2.13 2.15 2.20 2.23 2.31 2.49 2.50 2.59 2.80 3.01 3.03 2.97 2.96 2.80 2.71 2.69 2.43 2.08 2.02 1.96 1.90 1.86 1.83 1.90 1.98 2.08 2.12 2.04 1.61 1.51 1.42 1.38 1.38 1.52 1.95 2.48 2.91 3.11 3.05 2.83 2.82
1.79 1.78 1.84 1.94 2.07 2.13 2.21 2.37 2.47 2.47 2.53 2.59 2.62 2.81 2.92 2.80 2.59 2.51 2.49 2.54 2.29 2.07 1.92 1.83 1.76 1.74 1.80 1.82 1.96 1.99 1.55 1.44 1.35 1.27 1.21 1.10 1.22 1.53 2.03 2.44 2.56 2.63 2.85
1.39 1.42 1.48 1.63 1.82 1.94 1.98 2.10 2.29 2.29 2.36 2.37 2.44 2.50 2.53 2.60 2.47 2.28 2.23 2.34 2.47 2.28 2.12 1.94 1.73 1.52 1.58 1.58 1.67 1.48 1.41 1.40 1.30 1.20 1.11 1.02 0.97 1.07 1.36 1.72 1.88 1.82 1.88
1.33 1.38 1.39 1.44 1.57 1.65 1.75 1.90 2.04 2.13 2.20 2.16 2.14 2.20 2.25 2.30 2.32 2.28 2.24 2.26 2.27 2.25 2.15 1.94 1.64 1.37 1.41 1.49 1.66 1.42 1.45 1.60 1.45 1.26 1.06 1.02 0.99 0.97 1.05 1.19 1.30 1.23 1.18
1.38 1.40 1.43 1.45 1.45 1.51 1.55 1.65 1.80 1.95 1.96 1.96 1.85 1.88 2.01 2.08 2.28 2.31 2.28 2.23 2.22 2.14 2.01 1.92 1.66 1.44 1.40 1.49 1.57 1.46 1.47 1.51 1.40 1.32 1.15 1.06 0.96 1.01 1.05 1.08 1.16 1.10 0.96
1.27 1.32 1.42 1.36 1.33 1.35 1.42 1.53 1.63 1.68 1.74 1.71 1.62 1.65 1.77 1.84 1.99 2.10 2.21 2.12 2.12 2.09 2.08 2.03 1.81 1.59 1.51 1.51 1.59 1.54 1.41 1.37 1.39 1.44 1.29 1.18 1.07 0.99 1.06 1.05 1.16 1.22 1.12
1.22 1.31 1.41 1.48 1.37 1.26 1.33 1.40 1.43 1.45 1.45 1.39 1.38 1.45 1.52 1.59 1.71 1.82 1.93 2.02 2.05 1.99 2.07 2.04 1.85 1.66 1.51 1.45 1.50 1.47 1.41 1.46 1.37 1.44 1.38 1.26 1.20 1.11 1.10 1.10 1.09 1.19 1.21
1.05 1.10 1.22 1.32 1.35 1.29 1.23 1.20 1.21 1.35 1.34 1.23 1.13 1.13 1.16 1.21 1.34 1.47 1.59 1.75 1.91 2.03 2.10 2.12 1.96 1.71 1.52 1.46 1.53 1.59 1.58 1.49 1.49 1.40 1.40 1.37 1.35 1.30 1.21 1.19 1.10 1.10 1.18
0.94 0.99 1.15 1.29 1.34 1.32 1.31 1.30 1.20 1.22 1.27 1.26 1.17 1.05 0.96 0.97 1.08 1.16 1.25 1.52 1.72 1.88 2.02 2.08 1.99 1.81 1.63 1.54 1.52 1.53 1.60 1.68 1.68 1.52 1.46 1.38 1.32 1.18 1.07 1.10 1.09 1.04 1.03
0.88 0.89 0.97 1.10 1.23 1.20 1.39 1.44 1.33 1.19 1.18 1.17 1.17 1.13 1.10 1.06 0.94 0.89 0.95 1.11 1.34 1.54 1.73 1.86 1.90 1.74 1.57 1.53 1.58 1.60 1.60 1.65 1.71 1.56 1.50 1.57 1.50 1.35 1.20 1.09 1.16 1.08 1.02
0.85 0.85 0.91 1.05 1.19 1.37 1.44 1.26 1.33 1.28 1.20 1.18 1.14 1.13 1.15 1.11 1.15 1.03 0.97 0.94 0.96 1.14 1.39 1.59 1.62 1.56 1.63 1.57 1.54 1.50 1.49 1.48 1.51 1.54 1.54 1.57 1.55 1.42 1.24 1.18 1.27 1.20 1.14
0.85 0.86 0.90 0.99 1.06 1.30 1.40 1.22 1.41 1.41 1.35 1.30 1.25 1.26 1.30 1.30 1.23 1.34 1.29 1.15 1.05 1.04 1.16 1.10 1.18 1.46 1.59 1.62 1.62 1.64 1.68 1.58 1.51 1.51 1.44 1.47 1.39 1.33 1.20 1.13 1.20 1.14 1.08
0.84 0.85 0.84 0.86 0.89 1.00 1.15 1.10 1.23 1.33 1.41 1.39 1.27 1.25 1.28 1.27 1.48 1.53 1.37 1.30 1.21 1.14 1.31 1.34 1.35 1.40 1.48 1.48 1.47 1.54 1.60 1.55 1.50 1.45 1.36 1.26 1.21 1.28 1.32 1.22 1.19 1.26 1.20
0.90 0.83 0.80 0.79 0.80 0.83 1.02 0.92 1.03 1.11 1.26 1.39 1.34 1.27 1.43 1.36 1.38 1.33 1.22 1.36 1.30 1.18 1.10 1.08 1.09 1.15 1.18 1.23 1.29 1.30 1.44 1.48 1.41 1.43 1.31 1.25 1.20 1.26 1.32 1.23 1.11 1.11 1.16

GEFSMA_prec_meanprecacc_306.txt.gz
Total_Precipitation_Accumulation
1.00 1.01 0.97 1.05 1.04 1.03 1.09 1.07 0.94 0.94 0.92 0.81 0.78 0.80 0.86 0.88 1.02 1.16 1.45 1.96 2.62 3.29 3.46 3.19 2.70 2.39 2.28 2.24 2.16 2.12 2.07 2.09 2.25 2.45 2.35 2.25 2.32 2.35 2.29 2.58 2.82 3.14 3.29
0.85 0.97 0.99 1.07 1.02 1.06 1.12 1.02 0.98 1.01 1.00 0.89 0.83 0.85 0.85 0.88 0.96 1.09 1.26 1.58 1.98 2.63 3.31 3.49 3.13 2.74 2.49 2.46 2.47 2.49 2.27 2.13 2.15 2.37 2.42 2.26 2.25 2.18 2.15 2.33 2.65 2.90 3.32
0.82 0.95 1.03 1.04 1.04 1.06 1.07 1.09 1.10 1.07 0.99 0.91 0.92 0.90 0.86 0.86 1.02 1.15 1.21 1.40 1.47 1.61 2.30 3.09 3.39 3.24 2.98 2.97 2.87 2.68 2.49 2.32 2.16 2.23 2.35 2.26 2.19 2.01 2.10 2.17 2.28 2.41 2.92
0.87 1.09 1.15 1.04 1.10 1.20 1.23 1.26 1.22 1.15 1.08 1.07 1.10 1.07 0.99 1.01 1.17 1.24 1.20 1.18 1.24 1.18 1.42 1.94 2.43 2.81 3.14 3.27 3.23 3.02 2.75 2.53 2.22 2.17 2.19 2.18 2.08 1.89 1.94 2.05 2.11 2.24 2.47
1.05 1.26 1.32 1.20 1.18 1.34 1.33 1.23 1.28 1.34 1.31 1.35 1.26 1.29 1.25 1.25 1.24 1.16 1.14 1.20 1.26 1.27 1.34 1.30 1.53 1.90 2.58 3.14 3.45 3.62 3.24 2.97 2.64 2.42 2.31 2.12 1.98 1.88 1.87 1.91 1.97 2.11 2.20
1.24 1.43 1.56 1.50 1.44 1.58 1.61 1.50 1.63 1.71 1.64 1.69 1.55 1.46 1.40 1.38 1.31 1.29 1.26 1.31 1.44 1.36 1.41 1.36 1.35 1.21 1.60 2.33 2.98 3.48 3.49 3.31 3.02 2.64 2.46 2.10 1.98 1.85 1.79 1.81 1.86 2.00 2.13
1.64 1.78 1.77 1.98 2.03 2.02 2.06 2.04 2.21 2.27 2.01 1.88 2.24 2.19 1.77 1.44 1.30 1.37 1.46 1.51 1.62 1.65 1.62 1.58 1.54 1.32 1.24 1.56 2.18 3.10 3.36 3.26 3.07 2.77 2.66 2.39 2.09 1.90 1.82 1.83 1.87 1.85 1.99
2.00 1.92 2.02 2.27 2.31 2.42 2.53 2.39 2.57 2.70 2.39 2.10 2.58 3.08 2.67 2.18 1.51 1.26 1.37 1.54 1.72 1.75 1.69 1.57 1.57 1.55 1.47 1.54 1.67 2.32 2.90 3.22 3.16 2.98 2.83 2.74 2.32 2.07 1.91 1.88 1.89 1.87 1.84
2.44 2.31 2.26 2.41 2.45 2.54 2.75 2.78 2.74 2.91 2.88 2.53 2.50 3.09 3.10 2.70 2.23 1.65 1.46 1.53 1.72 1.83 1.88 1.85 1.68 1.69 1.60 1.68 1.80 1.69 1.92 2.49 2.97 2.99 2.90 2.84 2.60 2.29 2.00 1.94 1.94 1.87 1.71
2.61 2.53 2.48 2.56 2.59 2.59 2.69 2.74 2.74 3.04 3.29 3.08 2.77 2.52 2.49 2.52 2.56 2.20 1.79 1.63 1.75 1.85 1.98 1.91 1.93 1.99 1.94 1.90 1.90 1.65 1.49 1.67 2.19 2.66 2.84 2.92 2.78 2.51 2.21 2.09 2.12 1.98 1.86
2.40 2.28 2.37 2.52 2.55 2.58 2.59 2.75 2.88 3.15 3.22 3.15 3.05 2.90 2.70 2.51 2.13 2.22 2.19 1.96 1.89 1.81 1.92 2.07 2.15 2.19 2.13 2.25 2.34 1.84 1.47 1.40 1.72 2.19 2.65 2.89 2.98 2.92 2.64 2.35 2.24 2.22 2.18
2.30 2.16 2.21 2.30 2.38 2.44 2.42 2.47 2.66 2.85 3.10 3.25 3.17 3.00 2.97 2.89 2.66 2.45 2.15 2.02 2.15 2.03 1.91 1.92 2.00 2.08 2.23 2.35 2.25 2.03 1.55 1.39 1.51 1.65 1.95 2.45 2.84 3.08 3.02 2.85 2.66 2.51 2.52
2.25 2.23 2.15 2.17 2.21 2.25 2.33 2.51 2.52 2.61 2.82 3.02 3.05 2.98 2.97 2.82 2.74 2.72 2.45 2.10 2.05 2.00 1.93 1.89 1.87 1.93 2.01 2.11 2.14 2.05 1.62 1.51 1.43 1.39 1.40 1.54 1.97 2.50 2.94 3.15 3.10 2.88 2.87
1.83 1.81 1.86 1.97 2.09 2.15 2.23 2.39 2.48 2.49 2.56 2.62 2.64 2.83 2.93 2.82 2.62 2.54 2.53 2.57 2.32 2.11 1.96 1.88 1.82 1.80 1.84 1.85 1.98 2.01 1.56 1.45 1.36 1.28 1.22 1.12 1.24 1.54 2.05 2.47 2.59 2.67 2.89
1.43 1.46 1.51 1.65 1.84 1.96 2.00 2.12 2.31 2.30 2.37 2.39 2.46 2.52 2.54 2.62 2.50 2.32 2.27 2.38 2.51 2.32 2.16 1.99 1.80 1.60 1.65 1.63 1.70 1.50 1.43 1.43 1.36 1.25 1.13 1.03 0.98 1.08 1.37 1.73 1.90 1.84 1.90
1.37 1.43 1.45 1.48 1.60 1.68 1.78 1.93 2.05 2.15 2.21 2.18 2.16 2.23 2.28 2.32 2.34 2.30 2.27 2.29 2.31 2.30 2.20 1.98 1.69 1.44 1.48 1.55 1.71 1.45 1.50 1.69 1.55 1.34 1.10 1.04 1.00 0.98 1.06 1.20 1.31 1.24 1.19
1.43 1.45 1.48 1.50 1.51 1.56 1.60 1.69 1.82 1.97 1.98 1.99 1.87 1.90 2.03 2.11 2.30 2.34 2.30 2.26 2.25 2.17 2.06 1.96 1.70 1.49 1.46 1.56 1.62 1.50 1.53 1.58 1.49 1.40 1.18 1.08 0.98 1.02 1.06 1.09 1.17 1.11 0.97
1.30 1.35 1.45 1.40 1.38 1.41 1.47 1.57 1.67 1.71 1.77 1.73 1.64 1.67 1.79 1.87 2.03 2.13 2.23 2.14 2.15 2.12 2.11 2.07 1.84 1.63 1.54 1.56 1.64 1.59 1.46 1.44 1.46 1.52 1.32 1.20 1.09 1.00 1.06 1.06 1.16 1.22 1.13
1.26 1.34 1.44 1.52 1.42 1.32 1.38 1.44 1.48 1.48 1.48 1.41 1.40 1.47 1.54 1.62 1.75 1.86 1.96 2.05 2.07 2.01 2.10 2.08 1.88 1.69 1.53 1.48 1.54 1.50 1.44 1.49 1.41 1.49 1.42 1.28 1.22 1.12 1.11 1.10 1.10 1.20 1.21
1.10 1.14 1.27 1.37 1.40 1.34 1.27 1.25 1.24 1.38 1.36 1.26 1.16 1.16 1.19 1.24 1.37 1.50 1.61 1.78 1.94 2.06 2.13 2.15 1.99 1.74 1.55 1.48 1.55 1.61 1.59 1.50 1.50 1.41 1.42 1.39 1.37 1.31 1.22 1.20 1.10 1.10 1.18
0.98 1.03 1.19 1.34 1.39 1.36 1.36 1.34 1.23 1.25 1.30 1.30 1.21 1.08 1.00 1.01 1.12 1.20 1.28 1.55 1.75 1.91 2.04 2.10 2.01 1.83 1.65 1.56 1.53 1.53 1.61 1.69 1.69 1.53 1.48 1.40 1.35 1.19 1.08 1.10 1.10 1.04 1.03
0.91 0.92 1.01 1.15 1.29 1.25 1.42 1.47 1.36 1.22 1.21 1.21 1.20 1.17 1.14 1.11 0.98 0.93 0.99 1.15 1.38 1.57 1.76 1.88 1.91 1.75 1.58 1.54 1.59 1.60 1.60 1.66 1.71 1.57 1.51 1.58 1.51 1.36 1.21 1.09 1.16 1.09 1.03
0.87 0.88 0.95 1.09 1.24 1.42 1.48 1.30 1.36 1.31 1.22 1.21 1.17 1.16 1.19 1.16 1.21 1.07 1.01 0.99 1.00 1.18 1.42 1.62 1.64 1.57 1.64 1.58 1.54 1.50 1.49 1.49 1.51 1.54 1.54 1.57 1.55 1.43 1.25 1.19 1.27 1.21 1.15
0.87 0.89 0.95 1.03 1.11 1.35 1.45 1.26 1.44 1.44 1.38 1.33 1.27 1.27 1.32 1.34 1.28 1.39 1.34 1.20 1.09 1.06 1.18 1.12 1.19 1.47 1.60 1.62 1.63 1.64 1.68 1.59 1.52 1.51 1.45 1.48 1.40 1.34 1.21 1.14 1.21 1.15 1.09
0.86 0.88 0.87 0.89 0.91 1.02 1.18 1.12 1.26 1.35 1.45 1.43 1.30 1.28 1.30 1.29 1.52 1.59 1.43 1.35 1.24 1.16 1.33 1.36 1.37 1.42 1.50 1.49 1.47 1.54 1.60 1.56 1.50 1.46 1.36 1.27 1.21 1.29 1.33 1.23 1.19 1.26 1.20
0.91 0.84 0.82 0.80 0.81 0.83 1.03 0.93 1.04 1.13 1.28 1.42 1.38 1.30 1.46 1.40 1.42 1.39 1.29 1.43 1.36 1.22 1.14 1.11 1.12 1.17 1.20 1.25 1.31 1.31 1.45 1.49 1.42 1.44 1.31 1.25 1.21 1.27 1.33 1.23 1.12 1.11 1.16

GEFSMA_prec_meanprecacc_312.txt.gz
Total_Precipitation_Accumulation
1.04 1.04 0.99 1.07 1.07 1.05 1.11 1.09 0.96 0.96 0.95 0.85 0.83 0.83 0.88 0.91 1.08 1.20 1.47 2.00 2.67 3.33 3.51 3.24 2.76 2.43 2.33 2.29 2.21 2.16 2.10 2.12 2.28 2.47 2.37 2.29 2.36 2.39 2.33 2.62 2.87 3.19 3.34
0.87 1.00 1.02 1.10 1.04 1.07 1.14 1.03 1.00 1.03 1.03 0.92 0.87 0.88 0.87 0.92 1.01 1.14 1.29 1.61 2.02 2.67 3.35 3.54 3.19 2.80 2.54 2.51 2.54 2.55 2.32 2.16 2.18 2.40 2.45 2.29 2.28 2.21 2.19 2.37 2.69 2.95 3.37
0.86 0.97 1.05 1.07 1.05 1.07 1.07 1.10 1.12 1.09 1.01 0.94 0.96 0.93 0.88 0.89 1.05 1.16 1.23 1.42 1.49 1.64 2.34 3.13 3.44 3.29 3.02 3.00 2.92 2.75 2.55 2.36 2.19 2.26 2.38 2.29 2.22 2.04 2.12 2.20 2.31 2.45 2.97
0.88 1.11 1.17 1.06 1.11 1.20 1.24 1.28 1.23 1.17 1.10 1.10 1.14 1.10 1.01 1.03 1.18 1.25 1.21 1.20 1.26 1.20 1.45 1.96 2.46 2.85 3.17 3.31 3.29 3.08 2.81 2.57 2.26 2.20 2.22 2.21 2.11 1.92 1.96 2.08 2.15 2.28 2.52
1.07 1.28 1.35 1.22 1.19 1.35 1.35 1.24 1.29 1.36 1.34 1.38 1.28 1.30 1.27 1.27 1.25 1.18 1.16 1.22 1.27 1.28 1.36 1.32 1.56 1.93 2.61 3.17 3.48 3.66 3.31 3.04 2.69 2.46 2.35 2.16 2.02 1.91 1.89 1.93 2.00 2.14 2.23
1.25 1.45 1.59 1.52 1.45 1.59 1.63 1.52 1.64 1.73 1.66 1.72 1.57 1.48 1.42 1.39 1.33 1.31 1.28 1.33 1.45 1.37 1.44 1.39 1.37 1.24 1.63 2.36 3.01 3.51 3.55 3.39 3.08 2.68 2.50 2.13 2.02 1.89 1.81 1.82 1.88 2.03 2.17
1.66 1.80 1.79 2.00 2.05 2.03 2.07 2.05 2.23 2.29 2.04 1.91 2.28 2.22 1.79 1.45 1.31 1.39 1.48 1.52 1.63 1.66 1.65 1.62 1.57 1.35 1.27 1.58 2.21 3.13 3.38 3.29 3.11 2.82 2.70 2.43 2.13 1.93 1.84 1.84 1.89 1.88 2.03
2.03 1.95 2.04 2.29 2.32 2.43 2.53 2.40 2.59 2.73 2.42 2.14 2.62 3.12 2.70 2.20 1.53 1.27 1.38 1.55 1.74 1.77 1.71 1.59 1.60 1.58 1.51 1.58 1.70 2.34 2.93 3.27 3.23 3.05 2.88 2.78 2.35 2.10 1.93 1.90 1.91 1.89 1.87
2.47 2.35 2.30 2.45 2.48 2.56 2.77 2.80 2.76 2.93 2.91 2.56 2.52 3.13 3.15 2.75 2.26 1.67 1.48 1.54 1.74 1.86 1.90 1.86 1.70 1.71 1.63 1.71 1.83 1.71 1.95 2.58 3.08 3.07 2.95 2.88 2.64 2.33 2.03 1.96 1.96 1.89 1.74
2.63 2.56 2.52 2.60 2.62 2.61 2.70 2.75 2.76 3.06 3.32 3.10 2.79 2.55 2.52 2.56 2.60 2.23 1.81 1.64 1.76 1.86 2.00 1.92 1.95 2.00 1.96 1.92 1.92 1.65 1.50 1.71 2.24 2.70 2.87 2.94 2.80 2.52 2.23 2.11 2.15 2.01 1.89
2.42 2.30 2.40 2.56 2.58 2.60 2.60 2.76 2.89 3.18 3.24 3.18 3.07 2.92 2.72 2.54 2.16 2.25 2.22 1.98 1.91 1.82 1.92 2.08 2.16 2.21 2.15 2.27 2.36 1.85 1.48 1.41 1.74 2.22 2.67 2.91 3.00 2.94 2.66 2.37 2.27 2.25 2.22
2.33 2.18 2.24 2.32 2.41 2.47 2.44 2.49 2.68 2.87 3.13 3.27 3.20 3.02 3.00 2.92 2.70 2.49 2.18 2.06 2.18 2.05 1.92 1.92 2.01 2.09 2.25 2.37 2.27 2.04 1.55 1.39 1.52 1.66 1.97 2.47 2.85 3.10 3.05 2.88 2.68 2.54 2.55
2.29 2.27 2.19 2.20 2.24 2.27 2.35 2.54 2.55 2.63 2.84 3.05 3.08 3.01 3.00 2.86 2.79 2.75 2.47 2.12 2.07 2.02 1.94 1.90 1.88 1.94 2.02 2.13 2.16 2.07 1.63 1.52 1.44 1.40 1.41 1.57 1.99 2.52 2.97 3.17 3.13 2.91 2.90
1.87 1.86 1.92 2.02 2.13 2.19 2.25 2.41 2.50 2.51 2.57 2.64 2.67 2.86 2.97 2.86 2.66 2.56 2.54 2.59 2.35 2.13 1.97 1.90 1.84 1.82 1.87 1.88 2.01 2.02 1.57 1.46 1.37 1.29 1.22 1.13 1.25 1.57 2.07 2.49 2.62 2.70 2.92
1.46 1.48 1.53 1.68 1.87 2.00 2.03 2.15 2.33 2.32 2.39 2.40 2.47 2.55 2.57 2.65 2.54 2.34 2.29 2.40 2.54 2.35 2.18 2.01 1.83 1.64 1.67 1.66 1.75 1.52 1.45 1.45 1.37 1.26 1.14 1.04 0.99 1.10 1.39 1.75 1.93 1.86 1.92
1.38 1.45 1.49 1.51 1.62 1.70 1.80 1.95 2.08 2.17 2.22 2.19 2.18 2.25 2.31 2.36 2.37 2.32 2.29 2.31 2.33 2.32 2.23 2.00 1.71 1.47 1.51 1.58 1.75 1.49 1.54 1.72 1.58 1.36 1.11 1.05 1.01 0.99 1.07 1.21 1.32 1.25 1.20
1.45 1.47 1.51 1.54 1.54 1.59 1.63 1.72 1.86 2.01 2.01 2.02 1.89 1.92 2.05 2.14 2.34 2.37 2.33 2.29 2.27 2.20 2.10 2.00 1.74 1.54 1.50 1.60 1.67 1.55 1.57 1.63 1.53 1.43 1.21 1.10 1.00 1.04 1.07 1.10 1.18 1.11 0.97
1.33 1.38 1.48 1.43 1.41 1.45 1.52 1.62 1.71 1.75 1.80 1.77 1.67 1.70 1.82 1.90 2.06 2.17 2.27 2.17 2.17 2.15 2.14 2.11 1.88 1.68 1.59 1.60 1.68 1.63 1.52 1.50 1.50 1.55 1.35 1.22 1.10 1.02 1.08 1.07 1.17 1.23 1.13
1.28 1.36 1.47 1.56 1.46 1.37 1.44 1.50 1.54 1.54 1.52 1.45 1.43 1.50 1.58 1.65 1.78 1.89 1.99 2.08 2.10 2.05 2.14 2.12 1.92 1.73 1.57 1.51 1.57 1.53 1.48 1.54 1.44 1.52 1.44 1.31 1.24 1.13 1.12 1.12 1.11 1.21 1.22
1.12 1.17 1.30 1.41 1.44 1.38 1.33 1.31 1.29 1.42 1.40 1.28 1.18 1.18 1.22 1.27 1.40 1.54 1.65 1.81 1.97 2.10 2.17 2.19 2.04 1.78 1.58 1.51 1.58 1.63 1.62 1.53 1.53 1.43 1.44 1.41 1.38 1.32 1.22 1.20 1.11 1.10 1.18
0.99 1.04 1.21 1.37 1.43 1.41 1.41 1.38 1.27 1.28 1.33 1.32 1.24 1.11 1.01 1.04 1.17 1.26 1.35 1.61 1.81 1.98 2.10 2.16 2.06 1.87 1.69 1.59 1.55 1.55 1.63 1.71 1.71 1.55 1.50 1.41 1.36 1.20 1.08 1.11 1.10 1.05 1.03
0.93 0.94 1.03 1.17 1.32 1.29 1.47 1.50 1.39 1.24 1.23 1.24 1.23 1.19 1.16 1.13 1.03 0.98 1.06 1.23 1.48 1.68 1.85 1.95 1.97 1.79 1.61 1.57 1.61 1.62 1.62 1.68 1.73 1.59 1.53 1.60 1.53 1.39 1.22 1.10 1.16 1.09 1.03
0.90 0.90 0.97 1.11 1.26 1.45 1.52 1.34 1.40 1.33 1.25 1.23 1.20 1.19 1.21 1.18 1.24 1.09 1.04 1.03 1.06 1.25 1.51 1.70 1.71 1.62 1.67 1.61 1.57 1.52 1.51 1.51 1.54 1.56 1.56 1.59 1.57 1.44 1.26 1.20 1.28 1.21 1.15
0.89 0.91 0.97 1.06 1.14 1.39 1.48 1.29 1.47 1.47 1.41 1.36 1.30 1.31 1.36 1.38 1.31 1.42 1.37 1.23 1.11 1.10 1.23 1.18 1.25 1.52 1.64 1.67 1.66 1.66 1.69 1.60 1.53 1.53 1.47 1.49 1.41 1.35 1.23 1.15 1.21 1.15 1.09
0.87 0.90 0.89 0.91 0.93 1.05 1.20 1.14 1.28 1.37 1.48 1.46 1.33 1.31 1.34 1.33 1.56 1.64 1.49 1.40 1.28 1.19 1.37 1.42 1.43 1.49 1.57 1.57 1.53 1.58 1.63 1.58 1.51 1.47 1.37 1.28 1.22 1.30 1.34 1.24 1.20 1.26 1.21
0.94 0.87 0.83 0.81 0.83 0.86 1.06 0.94 1.06 1.14 1.31 1.45 1.41 1.34 1.51 1.44 1.46 1.43 1.32 1.46 1.40 1.27 1.19 1.16 1.17 1.24 1.27 1.32 1.38 1.35 1.47 1.51 1.43 1.45 1.32 1.26 1.22 1.29 1.35 1.25 1.13 1.11 1.17

GEFSMA_prec_meanprecacc_318.txt.gz
Total_Precipitation_Accumulation
1.05 1.05 1.00 1.09 1.07 1.07 1.13 1.10 0.98 0.99 0.97 0.87 0.84 0.85 0.90 0.92 1.09 1.22 1.50 2.03 2.71 3.37 3.56 3.28 2.80 2.50 2.40 2.34 2.26 2.22 2.15 2.16 2.32 2.51 2.41 2.32 2.40 2.43 2.37 2.68 2.93 3.26 3.41
0.88 1.01 1.04 1.13 1.05 1.09 1.16 1.05 1.02 1.04 1.04 0.94 0.88 0.89 0.88 0.94 1.03 1.16 1.30 1.64 2.05 2.71 3.38 3.58 3.22 2.85 2.58 2.55 2.57 2.59 2.36 2.22 2.24 2.44 2.48 2.32 2.31 2.24 2.22 2.40 2.74 3.01 3.43
0.87 0.99 1.06 1.09 1.08 1.09 1.09 1.11 1.15 1.11 1.02 0.95 0.97 0.94 0.90 0.91 1.08 1.19 1.25 1.43 1.51 1.67 2.39 3.17 3.47 3.33 3.05 3.04 2.98 2.81 2.60 2.42 2.26 2.31 2.42 2.32 2.25 2.06 2.15 2.23 2.35 2.49 3.02
0.91 1.13 1.18 1.07 1.12 1.22 1.25 1.29 1.26 1.19 1.12 1.11 1.15 1.10 1.03 1.05 1.19 1.28 1.23 1.21 1.28 1.22 1.48 1.99 2.49 2.89 3.20 3.34 3.33 3.14 2.88 2.64 2.31 2.25 2.27 2.25 2.14 1.95 2.00 2.12 2.18 2.31 2.54
1.09 1.30 1.38 1.24 1.20 1.36 1.36 1.25 1.30 1.37 1.36 1.40 1.29 1.31 1.28 1.28 1.27 1.21 1.18 1.23 1.28 1.30 1.38 1.35 1.59 1.98 2.66 3.21 3.52 3.71 3.36 3.07 2.72 2.48 2.38 2.20 2.05 1.94 1.92 1.97 2.03 2.17 2.25
1.29 1.48 1.62 1.55 1.48 1.61 1.65 1.53 1.66 1.75 1.68 1.73 1.58 1.49 1.43 1.40 1.34 1.33 1.30 1.36 1.47 1.39 1.45 1.41 1.40 1.26 1.66 2.40 3.06 3.57 3.61 3.43 3.12 2.72 2.53 2.17 2.05 1.92 1.84 1.84 1.91 2.06 2.19
1.70 1.84 1.82 2.03 2.08 2.05 2.09 2.07 2.24 2.31 2.05 1.92 2.29 2.23 1.80 1.47 1.33 1.40 1.50 1.55 1.65 1.68 1.66 1.63 1.59 1.37 1.29 1.61 2.26 3.19 3.44 3.35 3.15 2.86 2.74 2.46 2.16 1.95 1.87 1.86 1.91 1.90 2.05
2.07 1.99 2.09 2.33 2.36 2.46 2.55 2.41 2.60 2.75 2.43 2.14 2.63 3.13 2.72 2.22 1.55 1.29 1.40 1.57 1.76 1.80 1.73 1.60 1.61 1.60 1.53 1.59 1.72 2.39 2.98 3.33 3.27 3.10 2.93 2.82 2.38 2.12 1.95 1.91 1.92 1.91 1.89
2.49 2.38 2.34 2.50 2.54 2.62 2.81 2.82 2.78 2.95 2.92 2.57 2.53 3.14 3.16 2.77 2.29 1.69 1.50 1.57 1.77 1.88 1.92 1.87 1.71 1.73 1.65 1.73 1.84 1.73 1.99 2.63 3.15 3.13 3.00 2.91 2.67 2.36 2.05 1.99 1.99 1.91 1.76
2.65 2.58 2.54 2.64 2.68 2.66 2.76 2.80 2.79 3.09 3.35 3.14 2.82 2.58 2.54 2.58 2.63 2.27 1.84 1.67 1.78 1.87 2.01 1.93 1.96 2.02 1.98 1.94 1.93 1.68 1.54 1.75 2.30 2.76 2.90 2.97 2.83 2.55 2.26 2.15 2.19 2.04 1.92
2.45 2.32 2.42 2.58 2.61 2.63 2.65 2.81 2.93 3.21 3.28 3.22 3.12 2.96 2.75 2.56 2.18 2.27 2.25 2.01 1.94 1.84 1.93 2.09 2.17 2.23 2.17 2.29 2.37 1.86 1.50 1.43 1.76 2.25 2.70 2.93 3.02 2.96 2.68 2.40 2.30 2.27 2.24
2.37 2.21 2.26 2.34 2.43 2.49 2.47 2.52 2.71 2.90 3.16 3.31 3.23 3.06 3.02 2.94 2.72 2.51 2.20 2.09 2.21 2.08 1.94 1.93 2.02 2.10 2.26 2.39 2.28 2.05 1.57 1.41 1.53 1.69 2.01 2.50 2.87 3.13 3.07 2.90 2.71 2.57 2.57
2.34 2.31 2.22 2.23 2.26 2.30 2.39 2.57 2.58 2.66 2.86 3.08 3.11 3.05 3.04 2.89 2.81 2.78 2.50 2.14 2.10 2.03 1.96 1.92 1.89 1.95 2.03 2.15 2.17 2.09 1.65 1.53 1.44 1.41 1.44 1.59 2.01 2.55 2.99 3.19 3.15 2.93 2.93
1.92 1.91 1.96 2.06 2.16 2.22 2.30 2.46 2.53 2.54 2.60 2.66 2.69 2.89 3.01 2.89 2.69 2.59 2.58 2.62 2.36 2.15 1.99 1.91 1.86 1.84 1.89 1.89 2.02 2.04 1.59 1.47 1.38 1.29 1.23 1.14 1.27 1.58 2.10 2.52 2.64 2.73 2.95
1.52 1.53 1.56 1.72 1.91 2.03 2.08 2.20 2.36 2.35 2.42 2.43 2.50 2.57 2.60 2.68 2.57 2.38 2.33 2.43 2.56 2.36 2.20 2.03 1.85 1.67 1.72 1.69 1.77 1.54 1.46 1.46 1.39 1.27 1.14 1.04 1.00 1.11 1.40 1.77 1.95 1.89 1.96
1.44 1.50 1.52 1.54 1.65 1.73 1.84 1.99 2.11 2.20 2.25 2.22 2.20 2.27 2.33 2.39 2.40 2.35 2.33 2.35 2.36 2.34 2.24 2.01 1.73 1.50 1.55 1.62 1.79 1.52 1.56 1.74 1.59 1.37 1.12 1.05 1.02 1.00 1.08 1.22 1.33 1.27 1.22
1.48 1.51 1.54 1.57 1.57 1.63 1.68 1.77 1.89 2.03 2.04 2.04 1.91 1.93 2.07 2.16 2.37 2.40 2.35 2.32 2.31 2.24 2.12 2.01 1.76 1.56 1.53 1.64 1.72 1.59 1.60 1.65 1.55 1.45 1.22 1.10 1.00 1.05 1.08 1.11 1.19 1.12 0.98
1.36 1.40 1.51 1.46 1.44 1.49 1.56 1.67 1.75 1.79 1.85 1.81 1.70 1.73 1.84 1.92 2.07 2.19 2.29 2.20 2.20 2.18 2.17 2.13 1.91 1.70 1.63 1.64 1.72 1.68 1.56 1.53 1.53 1.58 1.37 1.23 1.11 1.03 1.09 1.08 1.18 1.23 1.14
1.32 1.39 1.50 1.58 1.48 1.38 1.46 1.54 1.59 1.60 1.59 1.51 1.49 1.55 1.62 1.69 1.80 1.91 2.01 2.10 2.11 2.07 2.16 2.15 1.96 1.77 1.62 1.57 1.63 1.57 1.53 1.59 1.48 1.55 1.48 1.33 1.26 1.15 1.13 1.12 1.12 1.22 1.23
1.18 1.21 1.33 1.43 1.46 1.40 1.34 1.33 1.34 1.49 1.48 1.38 1.26 1.25 1.29 1.32 1.44 1.57 1.68 1.84 1.99 2.11 2.18 2.22 2.07 1.83 1.65 1.59 1.65 1.70 1.68 1.58 1.57 1.46 1.47 1.44 1.42 1.35 1.24 1.21 1.11 1.11 1.20
1.02 1.08 1.23 1.39 1.45 1.43 1.43 1.41 1.31 1.34 1.40 1.41 1.34 1.21 1.10 1.10 1.24 1.32 1.40 1.65 1.85 2.00 2.12 2.18 2.09 1.92 1.75 1.66 1.62 1.63 1.69 1.76 1.75 1.58 1.52 1.44 1.39 1.24 1.11 1.12 1.11 1.05 1.04
0.94 0.95 1.04 1.18 1.32 1.30 1.48 1.53 1.42 1.28 1.27 1.29 1.29 1.27 1.25 1.19 1.07 1.04 1.12 1.28 1.53 1.72 1.88 1.99 2.01 1.84 1.66 1.63 1.68 1.71 1.70 1.75 1.79 1.63 1.57 1.62 1.56 1.42 1.25 1.11 1.17 1.09 1.03
0.91 0.91 0.99 1.13 1.28 1.47 1.54 1.36 1.43 1.37 1.29 1.29 1.24 1.24 1.27 1.24 1.29 1.13 1.08 1.08 1.10 1.29 1.54 1.75 1.77 1.68 1.73 1.66 1.63 1.60 1.59 1.58 1.59 1.61 1.61 1.63 1.60 1.47 1.30 1.22 1.29 1.22 1.15
0.91 0.94 1.01 1.10 1.18 1.41 1.50 1.31 1.50 1.52 1.48 1.42 1.36 1.37 1.41 1.42 1.35 1.46 1.40 1.26 1.15 1.13 1.25 1.20 1.27 1.56 1.69 1.74 1.74 1.74 1.77 1.67 1.58 1.58 1.51 1.53 1.45 1.38 1.26 1.18 1.24 1.16 1.10
0.89 0.92 0.92 0.95 0.97 1.08 1.24 1.18 1.32 1.44 1.54 1.53 1.41 1.37 1.39 1.38 1.60 1.68 1.53 1.44 1.32 1.23 1.42 1.46 1.46 1.53 1.62 1.63 1.61 1.66 1.72 1.67 1.59 1.52 1.42 1.31 1.25 1.33 1.37 1.27 1.22 1.28 1.22
0.94 0.87 0.84 0.83 0.85 0.90 1.10 0.99 1.12 1.19 1.35 1.50 1.48 1.41 1.56 1.48 1.51 1.48 1.36 1.51 1.45 1.31 1.23 1.21 1.21 1.28 1.31 1.37 1.44 1.41 1.54 1.57 1.50 1.52 1.37 1.30 1.25 1.32 1.37 1.27 1.15 1.13 1.18

GEFSMA_prec_meanprecacc_324.txt.gz
Total_Precipitation_Accumulation
1.06 1.05 1.01 1.10 1.08 1.07 1.13 1.12 0.99 1.01 0.98 0.87 0.84 0.85 0.91 0.92 1.10 1.24 1.55 2.12 2.83 3.48 3.63 3.33 2.86 2.58 2.47 2.40 2.31 2.28 2.22 2.24 2.40 2.58 2.48 2.40 2.48 2.50 2.44 2.73 2.98 3.31 3.46
0.89 1.02 1.05 1.14 1.06 1.09 1.17 1.07 1.03 1.05 1.05 0.94 0.88 0.90 0.89 0.94 1.04 1.18 1.34 1.69 2.12 2.79 3.46 3.63 3.27 2.91 2.64 2.60 2.62 2.66 2.44 2.29 2.30 2.50 2.54 2.38 2.36 2.30 2.29 2.49 2.80 3.06 3.49
0.89 1.00 1.08 1.10 1.10 1.10 1.10 1.13 1.16 1.12 1.03 0.96 0.98 0.95 0.91 0.92 1.08 1.20 1.26 1.46 1.54 1.71 2.45 3.23 3.52 3.37 3.11 3.09 3.04 2.89 2.69 2.50 2.33 2.37 2.47 2.37 2.30 2.12 2.20 2.29 2.40 2.54 3.07
0.93 1.16 1.20 1.09 1.14 1.24 1.26 1.30 1.27 1.20 1.14 1.13 1.16 1.11 1.04 1.06 1.20 1.28 1.23 1.23 1.29 1.24 1.52 2.04 2.54 2.94 3.26 3.40 3.38 3.19 2.96 2.75 2.41 2.34 2.35 2.31 2.19 2.00 2.05 2.17 2.22 2.35 2.59
1.11 1.32 1.41 1.27 1.25 1.40 1.38 1.28 1.33 1.39 1.38 1.41 1.31 1.31 1.28 1.29 1.28 1.22 1.19 1.25 1.30 1.32 1.41 1.39 1.65 2.03 2.71 3.26 3.57 3.76 3.39 3.10 2.75 2.52 2.45 2.27 2.11 1.99 1.97 2.02 2.07 2.21 2.31
1.32 1.51 1.66 1.60 1.52 1.66 1.69 1.56 1.68 1.78 1.70 1.76 1.60 1.50 1.44 1.42 1.36 1.34 1.32 1.38 1.49 1.41 1.47 1.44 1.44 1.29 1.71 2.44 3.11 3.61 3.64 3.45 3.14 2.75 2.58 2.22 2.11 1.99 1.90 1.90 1.96 2.11 2.24
1.73 1.87 1.86 2.08 2.13 2.11 2.16 2.12 2.28 2.34 2.09 1.95 2.32 2.25 1.82 1.48 1.34 1.42 1.51 1.57 1.68 1.71 1.69 1.68 1.64 1.40 1.32 1.64 2.30 3.24 3.49 3.39 3.19 2.91 2.80 2.52 2.21 2.00 1.92 1.92 1.97 1.96 2.10
2.10 2.02 2.12 2.37 2.40 2.51 2.60 2.46 2.65 2.79 2.47 2.18 2.67 3.17 2.75 2.24 1.57 1.32 1.43 1.59 1.79 1.83 1.78 1.66 1.67 1.63 1.55 1.62 1.76 2.44 3.05 3.39 3.33 3.16 3.01 2.90 2.43 2.17 2.00 1.96 1.98 1.97 1.95
2.52 2.40 2.37 2.53 2.57 2.65 2.84 2.86 2.83 3.01 2.97 2.62 2.58 3.18 3.19 2.80 2.33 1.73 1.54 1.61 1.80 1.91 1.95 1.90 1.74 1.76 1.67 1.75 1.87 1.77 2.05 2.71 3.22 3.20 3.08 3.01 2.74 2.41 2.11 2.04 2.04 1.97 1.82
2.67 2.60 2.56 2.66 2.69 2.68 2.78 2.83 2.82 3.14 3.40 3.20 2.88 2.63 2.58 2.61 2.67 2.32 1.89 1.72 1.82 1.91 2.04 1.95 1.98 2.05 2.01 1.97 1.96 1.71 1.58 1.81 2.39 2.86 2.99 3.06 2.90 2.62 2.32 2.22 2.24 2.09 1.97
2.49 2.36 2.44 2.60 2.63 2.65 2.66 2.83 2.95 3.24 3.30 3.25 3.16 3.01 2.80 2.61 2.22 2.31 2.29 2.05 1.98 1.87 1.96 2.12 2.20 2.25 2.19 2.32 2.41 1.90 1.53 1.47 1.83 2.34 2.79 3.01 3.10 3.04 2.76 2.49 2.36 2.32 2.28
2.43 2.24 2.29 2.36 2.45 2.52 2.49 2.54 2.73 2.93 3.18 3.33 3.26 3.10 3.07 3.00 2.78 2.56 2.25 2.13 2.26 2.12 1.96 1.96 2.05 2.13 2.28 2.41 2.31 2.09 1.60 1.43 1.56 1.73 2.07 2.55 2.94 3.18 3.11 2.96 2.77 2.61 2.60
2.39 2.35 2.25 2.25 2.28 2.33 2.42 2.62 2.64 2.71 2.91 3.11 3.14 3.07 3.07 2.92 2.85 2.84 2.56 2.20 2.14 2.07 1.99 1.94 1.92 1.99 2.06 2.17 2.19 2.11 1.68 1.56 1.47 1.43 1.47 1.64 2.08 2.60 3.02 3.23 3.19 2.97 2.97
1.96 1.95 2.00 2.09 2.18 2.23 2.31 2.47 2.56 2.59 2.65 2.71 2.73 2.93 3.04 2.92 2.72 2.64 2.64 2.69 2.41 2.18 2.01 1.93 1.88 1.86 1.92 1.92 2.04 2.05 1.60 1.50 1.41 1.32 1.26 1.17 1.31 1.65 2.15 2.55 2.68 2.77 3.01
1.54 1.56 1.59 1.75 1.94 2.05 2.09 2.21 2.38 2.38 2.47 2.49 2.56 2.63 2.65 2.73 2.60 2.41 2.38 2.50 2.63 2.41 2.23 2.04 1.86 1.68 1.73 1.71 1.80 1.56 1.48 1.48 1.42 1.30 1.18 1.07 1.02 1.14 1.44 1.81 1.98 1.93 2.00
1.47 1.53 1.55 1.57 1.68 1.77 1.86 2.01 2.13 2.21 2.27 2.25 2.25 2.33 2.38 2.43 2.44 2.38 2.35 2.39 2.42 2.40 2.28 2.04 1.75 1.51 1.56 1.63 1.80 1.53 1.57 1.75 1.61 1.40 1.15 1.09 1.05 1.02 1.10 1.24 1.36 1.30 1.25
1.51 1.53 1.56 1.59 1.60 1.67 1.72 1.80 1.91 2.05 2.05 2.06 1.94 1.97 2.12 2.21 2.41 2.44 2.39 2.34 2.33 2.27 2.15 2.03 1.78 1.57 1.54 1.64 1.73 1.60 1.62 1.67 1.56 1.47 1.25 1.14 1.03 1.08 1.10 1.13 1.21 1.15 1.01
1.37 1.41 1.52 1.47 1.46 1.51 1.59 1.71 1.79 1.82 1.87 1.82 1.72 1.75 1.87 1.95 2.11 2.23 2.34 2.23 2.23 2.21 2.20 2.15 1.93 1.72 1.64 1.65 1.74 1.69 1.57 1.55 1.56 1.61 1.40 1.27 1.15 1.07 1.13 1.11 1.21 1.26 1.17
1.33 1.40 1.51 1.59 1.49 1.39 1.48 1.56 1.63 1.63 1.61 1.53 1.51 1.57 1.64 1.72 1.83 1.94 2.04 2.12 2.14 2.10 2.19 2.17 1.97 1.79 1.64 1.60 1.65 1.60 1.55 1.61 1.52 1.62 1.54 1.40 1.33 1.21 1.17 1.15 1.14 1.24 1.25
1.19 1.22 1.35 1.45 1.47 1.41 1.36 1.35 1.36 1.51 1.50 1.40 1.29 1.28 1.31 1.35 1.47 1.61 1.72 1.87 2.02 2.14 2.20 2.23 2.08 1.85 1.66 1.61 1.69 1.74 1.72 1.62 1.61 1.52 1.55 1.52 1.50 1.43 1.29 1.25 1.14 1.13 1.21
1.04 1.09 1.25 1.40 1.46 1.44 1.44 1.42 1.33 1.36 1.42 1.43 1.37 1.25 1.13 1.14 1.28 1.37 1.43 1.68 1.88 2.04 2.15 2.19 2.10 1.92 1.76 1.68 1.65 1.66 1.73 1.80 1.80 1.64 1.58 1.50 1.45 1.30 1.16 1.16 1.13 1.07 1.04
0.95 0.96 1.05 1.19 1.33 1.31 1.50 1.55 1.44 1.30 1.30 1.31 1.32 1.31 1.30 1.24 1.12 1.09 1.16 1.33 1.57 1.76 1.91 2.01 2.02 1.85 1.66 1.64 1.70 1.74 1.74 1.79 1.83 1.70 1.64 1.69 1.63 1.48 1.31 1.16 1.20 1.11 1.04
0.92 0.92 1.00 1.14 1.28 1.47 1.55 1.37 1.44 1.38 1.31 1.32 1.28 1.28 1.30 1.27 1.32 1.17 1.13 1.14 1.15 1.33 1.57 1.77 1.78 1.69 1.74 1.67 1.66 1.63 1.63 1.61 1.63 1.67 1.68 1.70 1.67 1.55 1.36 1.28 1.32 1.23 1.16
0.92 0.95 1.02 1.10 1.19 1.42 1.51 1.32 1.51 1.52 1.49 1.43 1.38 1.40 1.44 1.45 1.37 1.48 1.43 1.31 1.19 1.17 1.29 1.22 1.28 1.57 1.71 1.76 1.77 1.77 1.81 1.71 1.63 1.64 1.58 1.60 1.51 1.44 1.31 1.23 1.28 1.19 1.11
0.93 0.95 0.94 0.96 0.98 1.10 1.26 1.19 1.34 1.45 1.54 1.53 1.42 1.38 1.41 1.40 1.62 1.71 1.55 1.47 1.35 1.27 1.46 1.49 1.48 1.55 1.65 1.66 1.64 1.69 1.75 1.71 1.63 1.57 1.47 1.38 1.31 1.38 1.42 1.32 1.26 1.31 1.24
0.97 0.90 0.87 0.85 0.87 0.91 1.12 1.02 1.14 1.21 1.36 1.51 1.49 1.43 1.59 1.50 1.53 1.51 1.38 1.54 1.48 1.34 1.27 1.25 1.24 1.30 1.33 1.40 1.47 1.44 1.56 1.60 1.53 1.55 1.42 1.36 1.31 1.38 1.43 1.33 1.19 1.16 1.21

GEFSMA_prec_meanprecacc_330.txt.gz
Total_Precipitation_Accumulation
1.08 1.07 1.03 1.12 1.10 1.09 1.16 1.15 1.01 1.03 1.00 0.89 0.86 0.88 0.92 0.93 1.12 1.26 1.60 2.21 2.94 3.61 3.76 3.43 2.95 2.64 2.52 2.45 2.36 2.31 2.24 2.26 2.43 2.63 2.55 2.47 2.56 2.58 2.54 2.85 3.10 3.43 3.57
0.90 1.03 1.06 1.15 1.08 1.11 1.20 1.09 1.05 1.08 1.08 0.98 0.91 0.91 0.91 0.95 1.05 1.19 1.37 1.76 2.23 2.92 3.60 3.72 3.33 2.96 2.70 2.64 2.65 2.69 2.47 2.33 2.34 2.56 2.59 2.44 2.43 2.37 2.37 2.57 2.88 3.15 3.57
0.90 1.01 1.09 1.12 1.12 1.12 1.11 1.15 1.19 1.15 1.06 0.99 1.00 0.97 0.92 0.93 1.10 1.22 1.30 1.53 1.64 1.82 2.55 3.32 3.58 3.42 3.16 3.14 3.08 2.94 2.74 2.55 2.39 2.44 2.54 2.42 2.35 2.17 2.26 2.36 2.48 2.60 3.12
0.94 1.16 1.21 1.10 1.16 1.25 1.29 1.33 1.30 1.24 1.17 1.16 1.19 1.13 1.05 1.08 1.21 1.30 1.26 1.29 1.38 1.32 1.59 2.10 2.60 2.98 3.31 3.45 3.43 3.24 3.01 2.79 2.44 2.37 2.39 2.35 2.25 2.08 2.13 2.23 2.28 2.39 2.62
1.11 1.33 1.42 1.28 1.26 1.42 1.40 1.30 1.35 1.42 1.41 1.45 1.34 1.34 1.30 1.32 1.30 1.23 1.21 1.29 1.38 1.39 1.46 1.43 1.69 2.09 2.76 3.31 3.62 3.80 3.42 3.13 2.77 2.54 2.48 2.31 2.17 2.06 2.04 2.08 2.12 2.26 2.35
1.33 1.53 1.67 1.61 1.54 1.68 1.71 1.58 1.70 1.80 1.74 1.80 1.63 1.52 1.46 1.45 1.38 1.36 1.34 1.40 1.53 1.45 1.51 1.48 1.48 1.34 1.76 2.50 3.17 3.66 3.68 3.48 3.15 2.76 2.60 2.26 2.18 2.06 1.95 1.93 2.00 2.16 2.29
1.74 1.89 1.87 2.10 2.15 2.14 2.18 2.13 2.30 2.37 2.12 1.99 2.35 2.27 1.84 1.50 1.36 1.44 1.53 1.59 1.70 1.73 1.71 1.71 1.68 1.45 1.37 1.68 2.34 3.29 3.53 3.43 3.21 2.93 2.83 2.56 2.28 2.07 1.99 1.98 2.02 2.00 2.15
2.11 2.03 2.14 2.39 2.42 2.53 2.61 2.47 2.66 2.80 2.48 2.20 2.70 3.20 2.77 2.26 1.59 1.33 1.44 1.61 1.81 1.85 1.80 1.68 1.70 1.67 1.60 1.65 1.79 2.48 3.09 3.44 3.36 3.19 3.05 2.96 2.48 2.22 2.05 2.04 2.06 2.04 2.02
2.52 2.41 2.38 2.54 2.58 2.66 2.85 2.87 2.85 3.03 2.99 2.64 2.61 3.22 3.23 2.84 2.36 1.76 1.58 1.65 1.85 1.95 1.99 1.93 1.77 1.79 1.72 1.79 1.90 1.80 2.09 2.76 3.27 3.26 3.15 3.07 2.82 2.48 2.17 2.12 2.12 2.04 1.90
2.68 2.60 2.57 2.66 2.70 2.69 2.79 2.84 2.83 3.16 3.43 3.23 2.92 2.67 2.63 2.65 2.71 2.37 1.93 1.76 1.87 1.96 2.07 1.98 1.99 2.07 2.04 2.01 2.00 1.74 1.62 1.86 2.46 2.95 3.07 3.12 2.98 2.71 2.41 2.30 2.32 2.16 2.04
2.49 2.36 2.45 2.61 2.63 2.65 2.66 2.83 2.95 3.25 3.32 3.27 3.19 3.04 2.84 2.65 2.26 2.35 2.33 2.09 2.02 1.91 2.00 2.15 2.23 2.28 2.22 2.36 2.47 1.94 1.57 1.53 1.90 2.43 2.89 3.08 3.18 3.15 2.87 2.57 2.45 2.40 2.36
2.43 2.24 2.29 2.37 2.45 2.52 2.50 2.55 2.74 2.93 3.19 3.35 3.29 3.13 3.11 3.05 2.83 2.60 2.28 2.16 2.29 2.16 2.00 1.99 2.08 2.16 2.30 2.43 2.35 2.16 1.66 1.49 1.62 1.80 2.15 2.65 3.04 3.31 3.23 3.05 2.87 2.70 2.69
2.40 2.36 2.25 2.26 2.29 2.33 2.43 2.62 2.65 2.72 2.92 3.15 3.19 3.14 3.13 2.97 2.90 2.87 2.60 2.24 2.16 2.10 2.01 1.96 1.94 2.01 2.08 2.18 2.21 2.14 1.74 1.62 1.52 1.49 1.54 1.72 2.17 2.69 3.11 3.31 3.27 3.05 3.05
1.96 1.95 2.00 2.09 2.18 2.23 2.32 2.48 2.57 2.59 2.66 2.72 2.75 2.95 3.07 2.96 2.77 2.68 2.67 2.72 2.44 2.21 2.03 1.94 1.89 1.87 1.92 1.93 2.06 2.07 1.64 1.56 1.47 1.38 1.32 1.25 1.39 1.71 2.23 2.64 2.76 2.85 3.09
1.55 1.56 1.60 1.75 1.94 2.05 2.10 2.22 2.39 2.39 2.47 2.50 2.57 2.65 2.68 2.76 2.64 2.45 2.43 2.53 2.66 2.44 2.26 2.06 1.87 1.69 1.73 1.71 1.81 1.57 1.49 1.52 1.48 1.37 1.23 1.13 1.09 1.21 1.51 1.89 2.07 2.01 2.07
1.47 1.53 1.55 1.57 1.68 1.77 1.87 2.02 2.14 2.22 2.28 2.25 2.26 2.34 2.40 2.47 2.47 2.42 2.40 2.44 2.47 2.43 2.30 2.06 1.77 1.52 1.57 1.64 1.81 1.54 1.58 1.77 1.64 1.46 1.22 1.14 1.10 1.08 1.16 1.31 1.43 1.35 1.31
1.51 1.54 1.56 1.59 1.60 1.67 1.73 1.81 1.93 2.06 2.05 2.06 1.94 1.97 2.12 2.23 2.43 2.47 2.43 2.40 2.39 2.31 2.18 2.05 1.79 1.58 1.54 1.65 1.73 1.61 1.62 1.67 1.58 1.50 1.31 1.20 1.09 1.13 1.16 1.20 1.26 1.18 1.05
1.38 1.42 1.53 1.48 1.46 1.51 1.60 1.72 1.81 1.84 1.88 1.83 1.72 1.75 1.87 1.96 2.13 2.25 2.37 2.28 2.29 2.26 2.24 2.18 1.94 1.73 1.65 1.66 1.74 1.69 1.57 1.55 1.56 1.62 1.43 1.30 1.20 1.12 1.18 1.17 1.26 1.30 1.20
1.34 1.41 1.52 1.60 1.49 1.40 1.48 1.57 1.64 1.66 1.64 1.55 1.52 1.58 1.65 1.73 1.84 1.95 2.06 2.15 2.18 2.15 2.24 2.21 2.00 1.80 1.65 1.61 1.66 1.61 1.55 1.62 1.53 1.63 1.57 1.43 1.37 1.25 1.23 1.21 1.20 1.29 1.29
1.21 1.23 1.36 1.46 1.48 1.42 1.36 1.35 1.36 1.53 1.53 1.43 1.32 1.30 1.32 1.36 1.48 1.62 1.73 1.89 2.05 2.18 2.25 2.27 2.11 1.86 1.67 1.62 1.70 1.75 1.73 1.63 1.63 1.54 1.58 1.55 1.55 1.49 1.35 1.30 1.18 1.17 1.25
1.05 1.10 1.25 1.41 1.47 1.45 1.45 1.43 1.33 1.37 1.43 1.45 1.39 1.28 1.16 1.16 1.30 1.38 1.45 1.70 1.90 2.07 2.19 2.23 2.13 1.95 1.78 1.69 1.65 1.67 1.74 1.82 1.81 1.66 1.61 1.52 1.49 1.36 1.23 1.22 1.18 1.10 1.08
0.96 0.96 1.06 1.20 1.34 1.31 1.50 1.55 1.45 1.31 1.31 1.33 1.33 1.32 1.31 1.27 1.15 1.10 1.18 1.34 1.59 1.78 1.94 2.05 2.06 1.88 1.68 1.65 1.72 1.75 1.75 1.80 1.84 1.72 1.66 1.72 1.66 1.53 1.37 1.22 1.25 1.15 1.07
0.93 0.93 1.01 1.14 1.29 1.48 1.55 1.37 1.44 1.39 1.32 1.33 1.29 1.29 1.31 1.28 1.35 1.19 1.15 1.15 1.17 1.35 1.59 1.80 1.82 1.72 1.75 1.69 1.67 1.65 1.64 1.62 1.65 1.69 1.71 1.73 1.71 1.60 1.42 1.33 1.39 1.28 1.20
0.95 0.97 1.03 1.11 1.20 1.43 1.51 1.32 1.51 1.53 1.50 1.44 1.38 1.41 1.46 1.47 1.40 1.51 1.46 1.33 1.21 1.18 1.31 1.24 1.30 1.58 1.72 1.77 1.78 1.79 1.83 1.73 1.65 1.66 1.61 1.64 1.55 1.50 1.41 1.30 1.34 1.24 1.15
0.96 0.98 0.97 0.97 0.99 1.11 1.27 1.20 1.35 1.46 1.55 1.54 1.42 1.39 1.42 1.42 1.66 1.75 1.59 1.50 1.37 1.28 1.48 1.51 1.49 1.56 1.66 1.67 1.66 1.71 1.77 1.74 1.65 1.59 1.49 1.41 1.36 1.44 1.53 1.44 1.34 1.37 1.28
1.01 0.94 0.89 0.86 0.88 0.92 1.13 1.02 1.14 1.22 1.37 1.52 1.50 1.44 1.60 1.52 1.56 1.54 1.44 1.59 1.52 1.36 1.28 1.26 1.25 1.31 1.35 1.42 1.49 1.45 1.58 1.63 1.56 1.58 1.44 1.38 1.35 1.43 1.51 1.45 1.29 1.22 1.25

GEFSMA_prec_meanprecacc_336.txt.gz
Total_Precipitation_Accumulation
1.12 1.09 1.04 1.14 1.13 1.12 1.20 1.17 1.03 1.05 1.03 0.92 0.89 0.90 0.94 0.95 1.13 1.28 1.63 2.26 2.99 3.67 3.82 3.48 2.99 2.70 2.59 2.51 2.40 2.34 2.27 2.28 2.46 2.66 2.60 2.62 2.77 2.75 2.73 3.07 3.31 3.60 3.70
0.91 1.04 1.07 1.17 1.10 1.14 1.22 1.12 1.07 1.10 1.12 1.02 0.93 0.93 0.93 0.97 1.07 1.21 1.39 1.79 2.26 2.96 3.66 3.78 3.38 3.00 2.74 2.68 2.69 2.72 2.50 2.36 2.37 2.58 2.62 2.47 2.49 2.45 2.46 2.73 3.05 3.31 3.71
0.90 1.02 1.09 1.13 1.13 1.13 1.14 1.19 1.21 1.17 1.08 1.02 1.02 0.98 0.93 0.95 1.12 1.25 1.33 1.56 1.67 1.85 2.62 3.44 3.68 3.48 3.20 3.16 3.12 2.98 2.77 2.59 2.42 2.46 2.56 2.45 2.38 2.22 2.34 2.51 2.63 2.76 3.27
0.94 1.16 1.22 1.11 1.17 1.26 1.31 1.36 1.32 1.26 1.19 1.19 1.21 1.15 1.08 1.11 1.23 1.32 1.27 1.31 1.41 1.37 1.68 2.25 2.77 3.12 3.39 3.50 3.48 3.28 3.04 2.84 2.48 2.40 2.42 2.39 2.28 2.12 2.22 2.36 2.40 2.53 2.77
1.12 1.34 1.42 1.29 1.26 1.43 1.41 1.30 1.36 1.45 1.44 1.48 1.36 1.36 1.33 1.34 1.33 1.26 1.24 1.32 1.41 1.45 1.55 1.53 1.79 2.20 2.86 3.37 3.66 3.85 3.47 3.16 2.80 2.57 2.50 2.33 2.19 2.10 2.09 2.15 2.19 2.35 2.44
1.33 1.53 1.69 1.62 1.55 1.69 1.73 1.60 1.72 1.82 1.76 1.83 1.65 1.54 1.47 1.46 1.39 1.38 1.36 1.42 1.56 1.48 1.54 1.53 1.54 1.40 1.81 2.54 3.21 3.70 3.72 3.52 3.18 2.78 2.62 2.28 2.20 2.09 1.97 1.97 2.05 2.21 2.33
1.74 1.90 1.88 2.12 2.17 2.15 2.20 2.14 2.32 2.39 2.14 2.00 2.37 2.29 1.85 1.51 1.37 1.45 1.54 1.61 1.73 1.76 1.74 1.74 1.72 1.49 1.41 1.72 2.37 3.32 3.56 3.47 3.25 2.95 2.84 2.58 2.31 2.09 2.02 2.03 2.07 2.06 2.20
2.12 2.03 2.15 2.40 2.43 2.54 2.62 2.48 2.67 2.82 2.50 2.21 2.72 3.23 2.79 2.28 1.61 1.35 1.46 1.63 1.83 1.87 1.81 1.69 1.72 1.70 1.63 1.68 1.80 2.49 3.12 3.47 3.41 3.22 3.08 2.98 2.51 2.24 2.08 2.07 2.10 2.07 2.05
2.53 2.42 2.38 2.54 2.58 2.67 2.86 2.88 2.86 3.04 3.01 2.66 2.63 3.25 3.26 2.88 2.39 1.78 1.60 1.67 1.88 1.98 2.00 1.95 1.79 1.82 1.75 1.82 1.92 1.81 2.10 2.79 3.31 3.29 3.17 3.10 2.85 2.50 2.19 2.14 2.15 2.07 1.94
2.68 2.61 2.58 2.67 2.70 2.69 2.79 2.84 2.84 3.17 3.45 3.24 2.94 2.69 2.65 2.68 2.75 2.40 1.96 1.78 1.89 1.98 2.09 1.99 2.01 2.09 2.07 2.05 2.03 1.76 1.63 1.88 2.49 3.00 3.13 3.17 3.02 2.75 2.44 2.34 2.37 2.21 2.09
2.50 2.37 2.45 2.61 2.63 2.65 2.67 2.83 2.96 3.25 3.33 3.29 3.20 3.05 2.86 2.67 2.29 2.38 2.36 2.11 2.03 1.93 2.01 2.17 2.25 2.29 2.24 2.38 2.50 1.97 1.59 1.55 1.92 2.48 2.95 3.15 3.23 3.19 2.92 2.61 2.49 2.47 2.42
2.43 2.25 2.29 2.37 2.46 2.52 2.50 2.55 2.75 2.94 3.21 3.36 3.30 3.14 3.12 3.06 2.84 2.62 2.30 2.19 2.31 2.17 2.02 2.00 2.09 2.18 2.32 2.45 2.38 2.19 1.68 1.51 1.64 1.84 2.20 2.71 3.11 3.36 3.29 3.11 2.91 2.75 2.73
2.40 2.36 2.26 2.26 2.29 2.34 2.44 2.64 2.65 2.72 2.93 3.16 3.20 3.15 3.14 2.98 2.91 2.88 2.62 2.26 2.18 2.11 2.03 1.98 1.95 2.02 2.09 2.20 2.23 2.17 1.76 1.65 1.55 1.52 1.57 1.76 2.24 2.77 3.19 3.38 3.33 3.10 3.10
1.96 1.95 2.00 2.09 2.18 2.23 2.32 2.48 2.57 2.60 2.66 2.73 2.76 2.97 3.09 2.98 2.78 2.69 2.69 2.74 2.47 2.23 2.05 1.96 1.91 1.89 1.93 1.94 2.07 2.09 1.66 1.59 1.51 1.43 1.37 1.29 1.44 1.77 2.29 2.71 2.83 2.92 3.16
1.55 1.56 1.60 1.75 1.94 2.05 2.10 2.22 2.39 2.39 2.47 2.50 2.57 2.66 2.69 2.77 2.65 2.47 2.44 2.56 2.68 2.47 2.28 2.08 1.88 1.70 1.74 1.72 1.81 1.57 1.51 1.55 1.53 1.42 1.29 1.19 1.15 1.27 1.56 1.95 2.14 2.08 2.14
1.48 1.54 1.56 1.57 1.69 1.77 1.87 2.02 2.14 2.22 2.28 2.25 2.26 2.34 2.41 2.48 2.48 2.43 2.41 2.46 2.49 2.46 2.33 2.08 1.79 1.53 1.57 1.64 1.81 1.54 1.59 1.79 1.67 1.51 1.27 1.20 1.17 1.15 1.23 1.36 1.48 1.42 1.38
1.52 1.55 1.58 1.60 1.61 1.68 1.73 1.82 1.93 2.06 2.06 2.06 1.94 1.98 2.13 2.24 2.45 2.48 2.45 2.43 2.42 2.34 2.20 2.07 1.82 1.60 1.55 1.65 1.74 1.61 1.63 1.68 1.59 1.53 1.36 1.26 1.16 1.21 1.25 1.27 1.32 1.25 1.12
1.39 1.44 1.54 1.50 1.48 1.53 1.61 1.72 1.82 1.84 1.88 1.83 1.73 1.76 1.88 1.97 2.14 2.27 2.39 2.30 2.32 2.29 2.26 2.21 1.98 1.77 1.67 1.67 1.74 1.70 1.58 1.56 1.57 1.64 1.45 1.35 1.25 1.18 1.25 1.23 1.32 1.37 1.27
1.37 1.44 1.54 1.62 1.51 1.42 1.49 1.57 1.65 1.67 1.64 1.55 1.52 1.58 1.66 1.74 1.85 1.97 2.08 2.17 2.21 2.19 2.28 2.24 2.04 1.85 1.69 1.63 1.68 1.62 1.57 1.63 1.54 1.64 1.58 1.45 1.39 1.29 1.27 1.26 1.25 1.35 1.36
1.26 1.27 1.39 1.48 1.50 1.44 1.38 1.36 1.37 1.54 1.54 1.44 1.32 1.30 1.33 1.37 1.49 1.63 1.75 1.91 2.07 2.21 2.28 2.30 2.14 1.90 1.71 1.65 1.73 1.77 1.75 1.65 1.64 1.56 1.59 1.57 1.56 1.51 1.38 1.33 1.23 1.22 1.31
1.08 1.14 1.29 1.44 1.49 1.46 1.47 1.44 1.34 1.37 1.44 1.46 1.40 1.28 1.17 1.17 1.31 1.40 1.46 1.72 1.93 2.09 2.21 2.27 2.16 1.98 1.81 1.73 1.69 1.69 1.76 1.85 1.84 1.68 1.63 1.54 1.50 1.37 1.24 1.24 1.22 1.15 1.13
0.99 0.99 1.08 1.21 1.36 1.33 1.52 1.57 1.46 1.31 1.32 1.34 1.34 1.33 1.32 1.28 1.16 1.12 1.19 1.36 1.61 1.80 1.97 2.08 2.10 1.92 1.72 1.69 1.75 1.77 1.77 1.83 1.87 1.74 1.68 1.74 1.68 1.55 1.38 1.23 1.28 1.19 1.12
0.96 0.96 1.03 1.16 1.29 1.49 1.57 1.39 1.46 1.40 1.33 1.34 1.30 1.30 1.32 1.29 1.36 1.21 1.17 1.17 1.18 1.37 1.62 1.84 1.86 1.76 1.80 1.72 1.71 1.68 1.66 1.64 1.66 1.71 1.73 1.75 1.73 1.62 1.45 1.36 1.42 1.31 1.24
0.96 0.99 1.06 1.14 1.22 1.45 1.53 1.34 1.53 1.54 1.51 1.44 1.39 1.42 1.46 1.48 1.41 1.52 1.48 1.35 1.23 1.20 1.33 1.27 1.34 1.63 1.77 1.81 1.82 1.83 1.86 1.76 1.67 1.69 1.64 1.66 1.57 1.53 1.44 1.34 1.39 1.28 1.20
0.98 0.99 0.98 1.00 1.02 1.14 1.29 1.22 1.36 1.47 1.56 1.55 1.43 1.40 1.43 1.43 1.68 1.78 1.61 1.52 1.40 1.30 1.50 1.53 1.52 1.60 1.71 1.73 1.71 1.76 1.82 1.78 1.69 1.62 1.52 1.44 1.38 1.46 1.57 1.48 1.40 1.43 1.34
1.03 0.95 0.92 0.89 0.90 0.94 1.15 1.04 1.16 1.23 1.38 1.53 1.50 1.44 1.61 1.53 1.57 1.56 1.46 1.62 1.54 1.38 1.31 1.29 1.29 1.34 1.38 1.46 1.54 1.51 1.62 1.67 1.58 1.61 1.47 1.42 1.39 1.47 1.55 1.49 1.33 1.28 1.31

GEFSMA_prec_meanprecacc_342.txt.gz
Total_Precipitation_Accumulation
1.15 1.11 1.06 1.16 1.15 1.14 1.21 1.18 1.04 1.06 1.04 0.93 0.90 0.92 0.95 0.95 1.14 1.29 1.66 2.30 3.03 3.70 3.85 3.52 3.03 2.74 2.62 2.55 2.45 2.39 2.31 2.31 2.48 2.68 2.63 2.73 2.97 2.98 2.98 3.32 3.54 3.82 3.87
0.99 1.06 1.09 1.19 1.12 1.15 1.23 1.13 1.08 1.12 1.14 1.04 0.94 0.95 0.94 0.98 1.08 1.23 1.42 1.81 2.29 2.98 3.69 3.82 3.43 3.04 2.77 2.72 2.72 2.76 2.54 2.39 2.39 2.60 2.65 2.56 2.68 2.70 2.64 2.87 3.21 3.49 3.91
0.98 1.06 1.13 1.15 1.14 1.14 1.15 1.20 1.23 1.18 1.09 1.04 1.03 0.99 0.94 0.96 1.14 1.27 1.34 1.56 1.68 1.88 2.66 3.49 3.74 3.55 3.27 3.24 3.18 3.03 2.82 2.64 2.48 2.51 2.60 2.50 2.51 2.42 2.50 2.65 2.75 2.88 3.39
1.01 1.23 1.28 1.14 1.19 1.28 1.32 1.38 1.34 1.27 1.20 1.20 1.22 1.15 1.09 1.12 1.25 1.33 1.28 1.31 1.41 1.38 1.70 2.29 2.85 3.24 3.56 3.65 3.60 3.37 3.11 2.90 2.54 2.46 2.47 2.45 2.39 2.27 2.39 2.50 2.52 2.64 2.86
1.15 1.39 1.48 1.33 1.28 1.45 1.42 1.32 1.37 1.46 1.45 1.50 1.37 1.37 1.33 1.36 1.34 1.27 1.25 1.32 1.42 1.45 1.55 1.54 1.82 2.24 2.93 3.46 3.74 3.90 3.50 3.20 2.84 2.62 2.54 2.37 2.29 2.26 2.28 2.29 2.30 2.45 2.52
1.36 1.56 1.71 1.65 1.56 1.71 1.74 1.61 1.73 1.83 1.77 1.83 1.65 1.54 1.48 1.47 1.40 1.40 1.38 1.44 1.58 1.50 1.55 1.53 1.55 1.42 1.84 2.58 3.25 3.73 3.76 3.56 3.23 2.82 2.67 2.36 2.36 2.26 2.08 2.05 2.12 2.28 2.39
1.77 1.91 1.90 2.13 2.18 2.16 2.21 2.16 2.33 2.41 2.15 2.00 2.37 2.29 1.85 1.52 1.39 1.46 1.56 1.63 1.76 1.79 1.77 1.77 1.75 1.51 1.42 1.74 2.41 3.35 3.60 3.51 3.29 3.00 2.90 2.66 2.42 2.17 2.06 2.08 2.11 2.09 2.25
2.15 2.05 2.15 2.40 2.43 2.54 2.63 2.49 2.68 2.83 2.52 2.23 2.73 3.23 2.79 2.28 1.62 1.37 1.47 1.64 1.85 1.90 1.84 1.73 1.76 1.73 1.65 1.70 1.83 2.53 3.15 3.50 3.44 3.26 3.12 3.05 2.57 2.28 2.13 2.12 2.14 2.12 2.10
2.54 2.43 2.39 2.54 2.58 2.67 2.86 2.88 2.86 3.05 3.02 2.68 2.65 3.26 3.26 2.88 2.39 1.79 1.62 1.68 1.89 1.99 2.02 1.98 1.82 1.85 1.77 1.85 1.94 1.84 2.13 2.81 3.34 3.32 3.21 3.15 2.91 2.56 2.25 2.19 2.19 2.11 1.97
2.69 2.62 2.58 2.67 2.71 2.69 2.79 2.84 2.84 3.17 3.45 3.26 2.96 2.70 2.66 2.69 2.76 2.40 1.97 1.79 1.89 1.98 2.10 2.01 2.04 2.12 2.09 2.07 2.05 1.78 1.65 1.90 2.51 3.02 3.15 3.20 3.08 2.83 2.51 2.39 2.42 2.25 2.11
2.50 2.37 2.46 2.62 2.64 2.66 2.67 2.83 2.96 3.26 3.34 3.30 3.21 3.07 2.87 2.68 2.30 2.39 2.36 2.12 2.04 1.93 2.02 2.18 2.27 2.31 2.26 2.40 2.52 1.99 1.61 1.57 1.94 2.50 2.97 3.18 3.29 3.27 3.00 2.68 2.54 2.50 2.45
2.44 2.25 2.30 2.37 2.46 2.53 2.50 2.55 2.75 2.95 3.21 3.37 3.31 3.16 3.14 3.07 2.85 2.63 2.31 2.20 2.32 2.18 2.03 2.02 2.11 2.20 2.33 2.46 2.39 2.20 1.70 1.53 1.66 1.85 2.21 2.73 3.14 3.42 3.36 3.18 2.98 2.80 2.77
2.41 2.37 2.26 2.26 2.29 2.34 2.44 2.64 2.65 2.73 2.93 3.16 3.21 3.16 3.15 2.99 2.91 2.89 2.63 2.28 2.21 2.12 2.04 1.99 1.97 2.04 2.10 2.20 2.24 2.18 1.77 1.66 1.56 1.53 1.58 1.77 2.25 2.80 3.23 3.45 3.40 3.17 3.16
1.97 1.97 2.01 2.09 2.19 2.24 2.32 2.48 2.57 2.60 2.66 2.73 2.76 2.97 3.10 2.99 2.79 2.70 2.69 2.75 2.48 2.24 2.06 1.96 1.91 1.90 1.94 1.95 2.08 2.09 1.66 1.60 1.53 1.44 1.38 1.30 1.45 1.79 2.32 2.76 2.91 2.99 3.24
1.58 1.60 1.63 1.78 1.96 2.06 2.11 2.23 2.39 2.39 2.47 2.50 2.57 2.66 2.70 2.78 2.66 2.48 2.46 2.57 2.70 2.48 2.29 2.08 1.89 1.71 1.76 1.73 1.82 1.58 1.51 1.56 1.54 1.43 1.30 1.20 1.16 1.28 1.58 1.99 2.20 2.14 2.20
1.52 1.58 1.59 1.60 1.71 1.79 1.89 2.04 2.14 2.22 2.28 2.26 2.26 2.34 2.41 2.48 2.49 2.44 2.43 2.48 2.50 2.46 2.34 2.09 1.79 1.54 1.60 1.66 1.82 1.55 1.60 1.79 1.68 1.52 1.29 1.22 1.18 1.17 1.25 1.40 1.52 1.48 1.45
1.55 1.57 1.60 1.62 1.63 1.70 1.76 1.84 1.94 2.06 2.06 2.06 1.94 1.98 2.13 2.24 2.45 2.49 2.45 2.43 2.43 2.35 2.21 2.07 1.82 1.61 1.57 1.67 1.75 1.62 1.63 1.69 1.61 1.55 1.38 1.29 1.18 1.23 1.28 1.32 1.37 1.30 1.18
1.42 1.47 1.57 1.52 1.50 1.56 1.64 1.75 1.83 1.85 1.89 1.83 1.73 1.76 1.88 1.97 2.14 2.27 2.39 2.30 2.33 2.31 2.27 2.21 1.99 1.78 1.69 1.69 1.76 1.71 1.59 1.57 1.58 1.65 1.47 1.37 1.27 1.20 1.28 1.26 1.36 1.41 1.31
1.41 1.47 1.57 1.64 1.54 1.44 1.52 1.60 1.68 1.68 1.65 1.56 1.53 1.58 1.66 1.74 1.85 1.97 2.08 2.18 2.22 2.20 2.29 2.25 2.05 1.86 1.71 1.65 1.70 1.64 1.58 1.64 1.55 1.66 1.62 1.47 1.41 1.30 1.30 1.28 1.27 1.37 1.40
1.29 1.31 1.42 1.51 1.53 1.46 1.40 1.38 1.39 1.55 1.55 1.44 1.33 1.31 1.33 1.37 1.49 1.64 1.76 1.92 2.08 2.22 2.30 2.31 2.15 1.90 1.72 1.68 1.76 1.80 1.77 1.66 1.66 1.58 1.62 1.59 1.58 1.52 1.40 1.35 1.25 1.25 1.34
1.11 1.17 1.33 1.47 1.53 1.49 1.50 1.48 1.37 1.40 1.46 1.47 1.41 1.29 1.17 1.18 1.32 1.41 1.48 1.73 1.94 2.10 2.23 2.28 2.17 1.99 1.83 1.75 1.72 1.72 1.79 1.86 1.86 1.70 1.65 1.56 1.52 1.38 1.26 1.27 1.23 1.17 1.15
1.01 1.02 1.10 1.24 1.38 1.36 1.56 1.61 1.50 1.36 1.35 1.36 1.35 1.33 1.33 1.29 1.17 1.13 1.21 1.38 1.62 1.81 1.98 2.09 2.11 1.93 1.74 1.71 1.78 1.81 1.80 1.85 1.89 1.76 1.71 1.76 1.70 1.56 1.39 1.25 1.30 1.21 1.14
0.98 0.99 1.07 1.19 1.31 1.51 1.62 1.44 1.51 1.44 1.38 1.38 1.31 1.31 1.33 1.30 1.37 1.22 1.18 1.18 1.20 1.38 1.64 1.85 1.88 1.78 1.81 1.75 1.75 1.72 1.69 1.67 1.68 1.72 1.75 1.77 1.74 1.63 1.45 1.37 1.44 1.35 1.28
0.98 1.01 1.08 1.16 1.24 1.47 1.56 1.38 1.58 1.58 1.55 1.48 1.42 1.43 1.47 1.49 1.42 1.54 1.49 1.36 1.23 1.21 1.34 1.28 1.35 1.65 1.79 1.84 1.86 1.88 1.90 1.79 1.71 1.71 1.66 1.69 1.58 1.53 1.44 1.34 1.40 1.32 1.24
0.99 1.01 1.00 1.02 1.05 1.17 1.32 1.24 1.39 1.49 1.59 1.58 1.45 1.42 1.45 1.44 1.69 1.80 1.62 1.52 1.40 1.31 1.50 1.54 1.53 1.62 1.74 1.76 1.75 1.81 1.86 1.81 1.72 1.66 1.56 1.47 1.40 1.47 1.57 1.48 1.41 1.45 1.37
1.04 0.96 0.93 0.90 0.91 0.96 1.18 1.08 1.19 1.25 1.40 1.55 1.53 1.47 1.64 1.55 1.59 1.59 1.48 1.62 1.54 1.39 1.32 1.30 1.30 1.36 1.40 1.49 1.58 1.55 1.67 1.71 1.62 1.65 1.50 1.45 1.42 1.49 1.56 1.50 1.35 1.30 1.33

GEFSMA_prec_meanprecacc_348.txt.gz
Total_Precipitation_Accumulation
1.19 1.14 1.08 1.17 1.16 1.15 1.22 1.20 1.05 1.07 1.05 0.93 0.90 0.92 0.96 0.96 1.14 1.29 1.67 2.34 3.09 3.78 3.92 3.61 3.12 2.81 2.68 2.60 2.51 2.46 2.38 2.39 2.55 2.75 2.68 2.78 3.01 3.02 3.02 3.36 3.59 3.87 3.94
1.01 1.09 1.13 1.21 1.13 1.16 1.25 1.15 1.10 1.12 1.14 1.04 0.94 0.96 0.94 0.98 1.08 1.23 1.42 1.83 2.32 3.03 3.75 3.88 3.49 3.11 2.86 2.78 2.78 2.82 2.61 2.46 2.47 2.66 2.70 2.61 2.74 2.76 2.69 2.91 3.25 3.55 3.99
1.01 1.09 1.15 1.17 1.16 1.16 1.18 1.23 1.25 1.18 1.09 1.04 1.03 1.00 0.95 0.97 1.14 1.27 1.35 1.57 1.69 1.90 2.69 3.52 3.78 3.59 3.35 3.31 3.24 3.10 2.91 2.74 2.61 2.64 2.70 2.60 2.66 2.56 2.57 2.69 2.79 2.93 3.48
1.03 1.26 1.30 1.16 1.21 1.30 1.33 1.40 1.37 1.28 1.20 1.21 1.22 1.16 1.10 1.13 1.26 1.36 1.31 1.33 1.43 1.39 1.72 2.31 2.88 3.27 3.61 3.72 3.68 3.47 3.25 3.06 2.73 2.63 2.63 2.59 2.65 2.47 2.50 2.57 2.58 2.72 2.97
1.17 1.42 1.53 1.36 1.31 1.47 1.45 1.35 1.40 1.47 1.46 1.52 1.38 1.37 1.34 1.37 1.36 1.28 1.27 1.34 1.43 1.46 1.56 1.55 1.83 2.26 2.96 3.50 3.80 3.98 3.62 3.32 2.94 2.70 2.63 2.48 2.54 2.48 2.44 2.42 2.41 2.58 2.64
1.41 1.61 1.79 1.72 1.61 1.74 1.77 1.65 1.77 1.85 1.79 1.86 1.68 1.55 1.49 1.48 1.41 1.41 1.38 1.46 1.59 1.51 1.55 1.55 1.56 1.43 1.86 2.61 3.30 3.79 3.82 3.61 3.28 2.88 2.75 2.47 2.56 2.49 2.30 2.21 2.28 2.44 2.54
1.87 2.00 2.00 2.22 2.24 2.20 2.24 2.18 2.37 2.44 2.17 2.02 2.39 2.30 1.86 1.53 1.40 1.47 1.56 1.63 1.76 1.80 1.78 1.78 1.76 1.52 1.44 1.77 2.44 3.40 3.66 3.57 3.34 3.06 2.97 2.74 2.56 2.39 2.26 2.25 2.26 2.22 2.38
2.24 2.15 2.27 2.50 2.50 2.58 2.65 2.51 2.71 2.87 2.54 2.26 2.76 3.25 2.81 2.29 1.63 1.37 1.48 1.64 1.85 1.90 1.85 1.73 1.77 1.74 1.67 1.71 1.85 2.56 3.18 3.54 3.49 3.32 3.18 3.12 2.65 2.40 2.27 2.24 2.24 2.19 2.17
2.61 2.54 2.52 2.66 2.67 2.72 2.88 2.90 2.88 3.07 3.05 2.71 2.68 3.28 3.28 2.89 2.40 1.79 1.62 1.68 1.89 1.99 2.03 1.98 1.83 1.86 1.79 1.87 1.96 1.86 2.16 2.85 3.40 3.41 3.30 3.24 2.98 2.64 2.35 2.30 2.28 2.18 2.03
2.72 2.68 2.70 2.80 2.80 2.76 2.82 2.86 2.86 3.19 3.47 3.29 2.99 2.73 2.68 2.70 2.77 2.41 1.97 1.79 1.90 1.98 2.10 2.01 2.04 2.13 2.10 2.08 2.06 1.80 1.67 1.92 2.55 3.08 3.22 3.29 3.17 2.93 2.60 2.49 2.50 2.31 2.18
2.52 2.40 2.52 2.71 2.73 2.72 2.71 2.85 2.97 3.27 3.36 3.32 3.25 3.10 2.90 2.70 2.31 2.40 2.36 2.12 2.04 1.93 2.02 2.18 2.27 2.32 2.26 2.41 2.53 2.00 1.63 1.59 1.97 2.53 3.02 3.26 3.37 3.35 3.10 2.80 2.63 2.58 2.53
2.45 2.26 2.32 2.42 2.52 2.59 2.55 2.58 2.77 2.96 3.23 3.39 3.33 3.17 3.16 3.10 2.87 2.65 2.32 2.20 2.33 2.18 2.03 2.02 2.11 2.20 2.34 2.47 2.39 2.21 1.71 1.55 1.69 1.87 2.24 2.79 3.23 3.51 3.45 3.28 3.08 2.90 2.86
2.41 2.38 2.27 2.28 2.33 2.38 2.48 2.67 2.68 2.75 2.95 3.18 3.22 3.17 3.16 3.01 2.94 2.91 2.65 2.30 2.22 2.13 2.04 1.99 1.97 2.04 2.11 2.21 2.24 2.18 1.78 1.67 1.58 1.55 1.60 1.81 2.34 2.89 3.30 3.52 3.49 3.29 3.27
1.98 1.98 2.02 2.11 2.21 2.27 2.35 2.51 2.60 2.62 2.67 2.74 2.77 2.98 3.10 3.00 2.80 2.72 2.71 2.77 2.50 2.26 2.07 1.96 1.91 1.90 1.95 1.95 2.08 2.10 1.67 1.61 1.54 1.45 1.39 1.32 1.50 1.85 2.38 2.81 2.96 3.07 3.33
1.59 1.60 1.64 1.79 1.97 2.08 2.13 2.25 2.41 2.40 2.48 2.50 2.58 2.67 2.70 2.78 2.67 2.49 2.47 2.59 2.72 2.50 2.30 2.09 1.89 1.71 1.76 1.73 1.82 1.59 1.52 1.57 1.55 1.44 1.31 1.22 1.19 1.32 1.63 2.03 2.24 2.20 2.26
1.55 1.59 1.60 1.60 1.71 1.79 1.89 2.05 2.16 2.23 2.29 2.26 2.26 2.35 2.41 2.48 2.49 2.44 2.43 2.48 2.52 2.48 2.35 2.10 1.80 1.55 1.61 1.66 1.83 1.56 1.60 1.80 1.70 1.54 1.32 1.24 1.20 1.19 1.30 1.44 1.55 1.52 1.50
1.61 1.60 1.61 1.63 1.63 1.70 1.76 1.85 1.95 2.08 2.07 2.07 1.95 1.99 2.13 2.24 2.45 2.49 2.46 2.44 2.44 2.37 2.22 2.08 1.83 1.62 1.58 1.68 1.76 1.63 1.65 1.70 1.61 1.56 1.41 1.32 1.21 1.25 1.32 1.36 1.40 1.32 1.22
1.45 1.50 1.59 1.53 1.51 1.56 1.64 1.76 1.84 1.86 1.90 1.84 1.74 1.77 1.89 1.98 2.14 2.27 2.39 2.30 2.33 2.32 2.28 2.22 1.99 1.79 1.70 1.70 1.77 1.73 1.60 1.58 1.59 1.66 1.49 1.40 1.30 1.22 1.30 1.29 1.38 1.43 1.33
1.43 1.50 1.60 1.66 1.55 1.45 1.53 1.61 1.69 1.70 1.67 1.57 1.54 1.59 1.66 1.75 1.86 1.98 2.09 2.18 2.22 2.21 2.30 2.26 2.06 1.87 1.71 1.66 1.71 1.65 1.59 1.66 1.57 1.68 1.63 1.49 1.43 1.32 1.31 1.30 1.29 1.39 1.41
1.30 1.33 1.44 1.52 1.54 1.47 1.41 1.39 1.39 1.56 1.56 1.46 1.34 1.32 1.35 1.38 1.51 1.65 1.77 1.93 2.09 2.23 2.30 2.32 2.16 1.92 1.73 1.69 1.77 1.81 1.78 1.68 1.67 1.60 1.64 1.60 1.59 1.53 1.42 1.37 1.26 1.26 1.35
1.12 1.18 1.33 1.49 1.54 1.50 1.50 1.48 1.37 1.41 1.47 1.49 1.42 1.30 1.19 1.20 1.33 1.43 1.49 1.74 1.95 2.11 2.23 2.28 2.18 2.00 1.84 1.76 1.73 1.73 1.79 1.87 1.87 1.72 1.67 1.57 1.53 1.39 1.27 1.28 1.25 1.18 1.17
1.02 1.02 1.11 1.25 1.39 1.37 1.57 1.62 1.50 1.36 1.36 1.37 1.37 1.34 1.34 1.31 1.19 1.15 1.23 1.40 1.64 1.83 1.99 2.10 2.12 1.93 1.74 1.72 1.79 1.82 1.81 1.86 1.90 1.77 1.72 1.77 1.71 1.57 1.40 1.26 1.31 1.22 1.16
1.00 1.00 1.08 1.19 1.32 1.52 1.63 1.46 1.52 1.45 1.38 1.38 1.33 1.32 1.34 1.31 1.39 1.23 1.20 1.20 1.22 1.39 1.65 1.86 1.88 1.78 1.82 1.76 1.76 1.73 1.70 1.68 1.69 1.73 1.76 1.78 1.75 1.64 1.46 1.38 1.46 1.37 1.29
1.00 1.02 1.09 1.17 1.25 1.47 1.58 1.40 1.59 1.60 1.55 1.49 1.43 1.45 1.49 1.50 1.43 1.55 1.51 1.38 1.26 1.22 1.34 1.29 1.35 1.65 1.80 1.86 1.88 1.89 1.91 1.81 1.72 1.73 1.67 1.70 1.59 1.54 1.45 1.35 1.42 1.33 1.26
1.02 1.03 1.02 1.03 1.06 1.18 1.34 1.28 1.42 1.52 1.61 1.59 1.46 1.42 1.46 1.46 1.71 1.82 1.64 1.54 1.42 1.32 1.52 1.55 1.54 1.63 1.74 1.77 1.76 1.82 1.87 1.83 1.74 1.67 1.58 1.49 1.41 1.49 1.58 1.49 1.42 1.47 1.39
1.06 0.99 0.96 0.92 0.93 0.97 1.20 1.11 1.23 1.28 1.43 1.57 1.54 1.47 1.64 1.56 1.62 1.62 1.51 1.65 1.56 1.40 1.33 1.31 1.31 1.36 1.41 1.50 1.59 1.56 1.69 1.74 1.65 1.68 1.52 1.46 1.44 1.52 1.58 1.50 1.35 1.31 1.35

GEFSMA_prec_meanprecacc_354.txt.gz
Total_Precipitation_Accumulation
1.25 1.22 1.17 1.26 1.23 1.21 1.29 1.25 1.08 1.10 1.07 0.96 0.93 0.94 0.98 0.99 1.17 1.31 1.70 2.37 3.13 3.86 4.03 3.70 3.20 2.88 2.76 2.69 2.60 2.54 2.44 2.43 2.59 2.78 2.73 2.83 3.08 3.09 3.08 3.42 3.64 3.91 3.98
1.05 1.14 1.21 1.32 1.21 1.22 1.31 1.21 1.14 1.16 1.18 1.09 0.99 0.99 0.97 1.02 1.11 1.25 1.44 1.86 2.35 3.06 3.80 3.94 3.55 3.17 2.94 2.87 2.87 2.90 2.70 2.54 2.52 2.71 2.75 2.68 2.82 2.85 2.79 2.99 3.32 3.60 4.04
1.05 1.14 1.21 1.26 1.24 1.22 1.24 1.28 1.30 1.23 1.13 1.07 1.08 1.03 0.98 1.00 1.17 1.29 1.37 1.60 1.71 1.92 2.71 3.55 3.81 3.62 3.40 3.40 3.32 3.16 2.99 2.85 2.68 2.71 2.78 2.70 2.77 2.68 2.70 2.78 2.86 2.99 3.53
1.07 1.31 1.35 1.22 1.26 1.36 1.40 1.47 1.43 1.32 1.25 1.24 1.25 1.19 1.13 1.16 1.28 1.38 1.34 1.36 1.45 1.41 1.74 2.33 2.91 3.30 3.64 3.79 3.78 3.54 3.32 3.16 2.86 2.76 2.76 2.73 2.79 2.60 2.60 2.64 2.63 2.76 3.02
1.21 1.47 1.57 1.41 1.35 1.53 1.51 1.40 1.44 1.51 1.50 1.55 1.41 1.40 1.37 1.40 1.38 1.29 1.29 1.36 1.46 1.50 1.58 1.57 1.85 2.28 2.98 3.54 3.88 4.07 3.70 3.42 3.06 2.80 2.71 2.55 2.60 2.54 2.48 2.46 2.45 2.62 2.70
1.45 1.66 1.84 1.76 1.65 1.78 1.82 1.68 1.80 1.89 1.83 1.89 1.70 1.58 1.51 1.50 1.43 1.42 1.39 1.47 1.61 1.52 1.57 1.56 1.57 1.43 1.88 2.63 3.33 3.86 3.92 3.71 3.36 2.95 2.82 2.53 2.63 2.54 2.36 2.26 2.33 2.50 2.61
1.90 2.03 2.03 2.26 2.28 2.23 2.26 2.20 2.39 2.47 2.22 2.05 2.41 2.32 1.88 1.55 1.41 1.49 1.57 1.64 1.78 1.81 1.78 1.79 1.77 1.52 1.45 1.78 2.46 3.43 3.72 3.67 3.45 3.15 3.06 2.83 2.63 2.46 2.39 2.31 2.29 2.25 2.43
2.26 2.17 2.28 2.52 2.53 2.61 2.68 2.53 2.72 2.89 2.61 2.30 2.78 3.27 2.83 2.31 1.64 1.39 1.49 1.65 1.86 1.91 1.86 1.74 1.77 1.75 1.68 1.73 1.87 2.58 3.20 3.58 3.55 3.38 3.24 3.19 2.71 2.48 2.42 2.35 2.30 2.23 2.20
2.62 2.55 2.53 2.68 2.70 2.76 2.92 2.92 2.90 3.09 3.08 2.76 2.72 3.31 3.30 2.91 2.41 1.81 1.63 1.69 1.89 2.00 2.03 1.99 1.84 1.87 1.81 1.88 1.98 1.88 2.18 2.87 3.43 3.45 3.35 3.31 3.06 2.74 2.51 2.45 2.38 2.25 2.09
2.74 2.70 2.71 2.82 2.85 2.82 2.89 2.90 2.89 3.21 3.50 3.33 3.04 2.77 2.70 2.72 2.79 2.42 1.98 1.80 1.90 1.99 2.10 2.02 2.05 2.14 2.11 2.09 2.08 1.81 1.68 1.94 2.57 3.10 3.25 3.34 3.24 3.00 2.70 2.60 2.60 2.40 2.24
2.54 2.42 2.54 2.74 2.78 2.80 2.81 2.95 3.02 3.30 3.38 3.34 3.28 3.15 2.94 2.72 2.32 2.41 2.38 2.13 2.05 1.94 2.03 2.19 2.27 2.33 2.27 2.42 2.54 2.01 1.64 1.60 1.98 2.55 3.04 3.29 3.42 3.42 3.17 2.87 2.71 2.67 2.61
2.47 2.28 2.33 2.44 2.57 2.67 2.66 2.71 2.87 3.02 3.26 3.41 3.35 3.20 3.21 3.15 2.90 2.66 2.34 2.22 2.33 2.19 2.04 2.02 2.11 2.20 2.35 2.48 2.40 2.21 1.71 1.56 1.70 1.88 2.25 2.81 3.27 3.58 3.53 3.37 3.17 2.99 2.96
2.43 2.39 2.28 2.30 2.36 2.43 2.58 2.81 2.83 2.88 3.03 3.21 3.24 3.19 3.19 3.05 2.98 2.95 2.68 2.32 2.24 2.14 2.05 1.99 1.97 2.04 2.11 2.22 2.26 2.19 1.78 1.68 1.59 1.56 1.60 1.83 2.40 2.95 3.37 3.63 3.62 3.40 3.37
1.99 1.99 2.03 2.12 2.24 2.30 2.40 2.61 2.73 2.75 2.79 2.81 2.81 3.00 3.12 3.01 2.82 2.74 2.74 2.79 2.52 2.27 2.07 1.97 1.92 1.90 1.95 1.96 2.10 2.12 1.69 1.62 1.55 1.45 1.40 1.33 1.54 1.90 2.44 2.89 3.08 3.17 3.41
1.60 1.61 1.65 1.80 1.99 2.11 2.16 2.29 2.48 2.49 2.58 2.59 2.63 2.69 2.72 2.80 2.68 2.51 2.49 2.61 2.75 2.52 2.32 2.10 1.90 1.72 1.76 1.74 1.84 1.60 1.55 1.60 1.56 1.45 1.31 1.22 1.21 1.36 1.68 2.08 2.30 2.28 2.33
1.56 1.61 1.61 1.61 1.72 1.81 1.92 2.09 2.21 2.28 2.37 2.34 2.33 2.38 2.43 2.50 2.50 2.45 2.44 2.50 2.53 2.50 2.37 2.11 1.81 1.56 1.62 1.67 1.84 1.57 1.63 1.83 1.72 1.56 1.33 1.25 1.22 1.22 1.35 1.48 1.58 1.55 1.55
1.62 1.61 1.62 1.64 1.64 1.71 1.78 1.87 1.99 2.11 2.12 2.14 2.02 2.03 2.16 2.26 2.46 2.50 2.47 2.45 2.45 2.38 2.24 2.10 1.84 1.63 1.60 1.69 1.76 1.64 1.66 1.72 1.64 1.59 1.44 1.34 1.23 1.28 1.38 1.40 1.42 1.34 1.25
1.46 1.51 1.60 1.54 1.52 1.57 1.66 1.77 1.86 1.89 1.93 1.88 1.78 1.80 1.91 1.99 2.15 2.28 2.41 2.32 2.34 2.33 2.31 2.24 2.01 1.80 1.70 1.71 1.78 1.74 1.61 1.60 1.61 1.68 1.51 1.42 1.32 1.24 1.35 1.34 1.40 1.45 1.35
1.44 1.51 1.61 1.66 1.55 1.46 1.54 1.61 1.70 1.72 1.70 1.60 1.56 1.62 1.68 1.76 1.87 1.99 2.10 2.20 2.23 2.22 2.32 2.28 2.07 1.88 1.72 1.67 1.72 1.66 1.60 1.67 1.58 1.69 1.64 1.50 1.44 1.34 1.35 1.35 1.32 1.42 1.43
1.32 1.34 1.45 1.53 1.54 1.47 1.41 1.39 1.40 1.57 1.58 1.48 1.36 1.34 1.36 1.39 1.51 1.66 1.78 1.94 2.11 2.25 2.33 2.35 2.18 1.94 1.75 1.70 1.77 1.81 1.79 1.69 1.69 1.61 1.65 1.61 1.60 1.55 1.44 1.40 1.31 1.29 1.37
1.14 1.20 1.34 1.49 1.54 1.50 1.50 1.48 1.38 1.41 1.47 1.50 1.44 1.32 1.20 1.21 1.34 1.43 1.50 1.75 1.97 2.13 2.25 2.31 2.21 2.02 1.86 1.78 1.74 1.74 1.81 1.88 1.88 1.74 1.69 1.58 1.55 1.42 1.29 1.31 1.30 1.22 1.20
1.05 1.05 1.13 1.26 1.40 1.37 1.58 1.62 1.50 1.37 1.37 1.38 1.38 1.35 1.35 1.32 1.19 1.16 1.23 1.40 1.65 1.84 2.00 2.11 2.13 1.94 1.75 1.73 1.80 1.82 1.82 1.88 1.91 1.77 1.72 1.78 1.72 1.59 1.43 1.29 1.35 1.27 1.20
1.03 1.03 1.10 1.21 1.33 1.53 1.64 1.46 1.52 1.45 1.39 1.39 1.34 1.33 1.35 1.32 1.39 1.24 1.20 1.21 1.22 1.40 1.66 1.88 1.89 1.79 1.82 1.77 1.76 1.73 1.71 1.69 1.71 1.74 1.77 1.78 1.76 1.65 1.48 1.40 1.49 1.41 1.34
1.03 1.05 1.12 1.19 1.26 1.48 1.59 1.41 1.60 1.61 1.56 1.49 1.43 1.46 1.50 1.51 1.44 1.55 1.51 1.39 1.26 1.23 1.35 1.30 1.37 1.66 1.81 1.87 1.89 1.90 1.92 1.82 1.73 1.74 1.69 1.71 1.60 1.55 1.46 1.38 1.45 1.37 1.30
1.04 1.05 1.04 1.05 1.08 1.19 1.34 1.28 1.43 1.52 1.62 1.60 1.47 1.43 1.47 1.47 1.72 1.83 1.65 1.55 1.43 1.33 1.53 1.56 1.55 1.64 1.76 1.79 1.78 1.83 1.88 1.84 1.75 1.68 1.58 1.50 1.42 1.50 1.59 1.50 1.46 1.51 1.43
1.08 1.01 0.98 0.94 0.95 0.99 1.22 1.13 1.24 1.28 1.44 1.58 1.55 1.48 1.65 1.57 1.63 1.64 1.52 1.67 1.58 1.41 1.34 1.32 1.32 1.39 1.43 1.51 1.61 1.58 1.70 1.76 1.66 1.68 1.53 1.47 1.45 1.54 1.61 1.52 1.38 1.35 1.38

GEFSMA_prec_meanprecacc_360.txt.gz
Total_Precipitation_Accumulation
1.29 1.27 1.24 1.35 1.32 1.29 1.37 1.32 1.15 1.18 1.16 1.02 0.99 1.02 1.09 1.13 1.27 1.36 1.73 2.41 3.17 3.91 4.10 3.79 3.29 2.94 2.81 2.74 2.66 2.60 2.49 2.49 2.63 2.81 2.75 2.86 3.11 3.13 3.13 3.47 3.70 3.97 4.05
1.07 1.17 1.26 1.39 1.29 1.30 1.37 1.27 1.21 1.25 1.26 1.16 1.06 1.06 1.04 1.12 1.22 1.33 1.48 1.89 2.38 3.10 3.83 3.99 3.62 3.24 3.01 2.93 2.93 2.96 2.75 2.59 2.56 2.74 2.78 2.71 2.85 2.90 2.85 3.06 3.39 3.68 4.11
1.05 1.15 1.24 1.31 1.30 1.29 1.29 1.34 1.37 1.30 1.20 1.14 1.16 1.11 1.04 1.06 1.25 1.36 1.43 1.64 1.74 1.96 2.74 3.57 3.84 3.66 3.44 3.44 3.36 3.20 3.04 2.89 2.73 2.75 2.81 2.73 2.82 2.74 2.75 2.85 2.94 3.07 3.61
1.08 1.32 1.36 1.25 1.31 1.41 1.47 1.55 1.53 1.45 1.34 1.31 1.32 1.26 1.19 1.23 1.35 1.44 1.40 1.40 1.48 1.45 1.78 2.37 2.94 3.32 3.65 3.81 3.81 3.58 3.36 3.20 2.90 2.80 2.79 2.76 2.82 2.64 2.65 2.71 2.70 2.83 3.07
1.22 1.49 1.59 1.43 1.38 1.58 1.58 1.45 1.50 1.57 1.56 1.61 1.46 1.45 1.44 1.47 1.45 1.35 1.33 1.40 1.50 1.54 1.62 1.61 1.89 2.31 3.01 3.57 3.92 4.12 3.76 3.48 3.10 2.83 2.74 2.57 2.63 2.57 2.50 2.48 2.48 2.64 2.74
1.46 1.67 1.86 1.78 1.67 1.81 1.84 1.70 1.82 1.93 1.87 1.94 1.75 1.61 1.56 1.56 1.49 1.48 1.44 1.52 1.65 1.55 1.59 1.59 1.61 1.45 1.90 2.66 3.36 3.90 3.99 3.78 3.42 3.01 2.87 2.57 2.66 2.58 2.38 2.29 2.36 2.54 2.65
1.90 2.05 2.05 2.27 2.30 2.26 2.29 2.22 2.41 2.50 2.25 2.08 2.44 2.35 1.91 1.58 1.46 1.54 1.64 1.71 1.82 1.83 1.80 1.80 1.79 1.54 1.46 1.79 2.47 3.45 3.75 3.72 3.54 3.25 3.15 2.90 2.68 2.49 2.42 2.34 2.32 2.29 2.47
2.26 2.17 2.29 2.53 2.54 2.62 2.69 2.55 2.74 2.91 2.63 2.32 2.81 3.31 2.86 2.34 1.68 1.42 1.54 1.70 1.90 1.93 1.87 1.76 1.79 1.77 1.69 1.74 1.88 2.59 3.22 3.59 3.59 3.45 3.32 3.26 2.76 2.52 2.45 2.39 2.33 2.27 2.24
2.62 2.56 2.54 2.69 2.71 2.77 2.93 2.94 2.92 3.11 3.10 2.78 2.74 3.34 3.33 2.94 2.45 1.84 1.66 1.73 1.92 2.01 2.04 2.00 1.85 1.88 1.82 1.90 1.99 1.89 2.19 2.88 3.45 3.48 3.39 3.35 3.10 2.78 2.55 2.50 2.43 2.28 2.12
2.74 2.70 2.72 2.83 2.86 2.84 2.90 2.91 2.89 3.23 3.52 3.36 3.07 2.80 2.73 2.75 2.82 2.46 2.01 1.84 1.93 2.00 2.11 2.02 2.05 2.14 2.12 2.10 2.09 1.81 1.69 1.95 2.59 3.13 3.27 3.36 3.27 3.04 2.75 2.66 2.65 2.43 2.28
2.54 2.42 2.54 2.74 2.79 2.81 2.82 2.95 3.03 3.31 3.40 3.37 3.31 3.18 2.98 2.76 2.36 2.45 2.41 2.17 2.08 1.96 2.04 2.19 2.28 2.33 2.28 2.43 2.55 2.01 1.64 1.60 1.99 2.56 3.06 3.31 3.45 3.46 3.21 2.92 2.76 2.71 2.65
2.48 2.29 2.34 2.45 2.57 2.68 2.67 2.72 2.88 3.04 3.28 3.43 3.37 3.23 3.24 3.18 2.94 2.71 2.39 2.26 2.37 2.21 2.05 2.03 2.12 2.21 2.36 2.50 2.42 2.22 1.71 1.56 1.70 1.89 2.26 2.82 3.29 3.61 3.57 3.41 3.21 3.03 3.01
2.45 2.40 2.29 2.31 2.37 2.43 2.59 2.82 2.84 2.89 3.05 3.24 3.27 3.21 3.21 3.07 3.01 2.99 2.74 2.37 2.27 2.17 2.07 2.01 1.98 2.05 2.12 2.24 2.28 2.21 1.79 1.68 1.59 1.56 1.61 1.83 2.40 2.96 3.39 3.65 3.66 3.45 3.43
2.00 1.99 2.05 2.13 2.24 2.31 2.41 2.61 2.74 2.77 2.82 2.85 2.85 3.03 3.15 3.04 2.85 2.78 2.79 2.84 2.55 2.30 2.11 1.99 1.93 1.91 1.96 1.98 2.12 2.14 1.71 1.64 1.55 1.46 1.40 1.33 1.54 1.91 2.45 2.91 3.11 3.20 3.45
1.61 1.62 1.66 1.81 1.99 2.12 2.18 2.30 2.49 2.50 2.61 2.64 2.69 2.74 2.75 2.82 2.71 2.54 2.52 2.65 2.78 2.55 2.35 2.13 1.93 1.73 1.77 1.75 1.86 1.63 1.59 1.62 1.57 1.46 1.32 1.23 1.22 1.37 1.70 2.10 2.33 2.32 2.37
1.58 1.61 1.61 1.62 1.73 1.81 1.93 2.10 2.22 2.30 2.39 2.39 2.40 2.45 2.49 2.54 2.54 2.49 2.48 2.53 2.55 2.52 2.39 2.14 1.84 1.58 1.64 1.69 1.86 1.60 1.66 1.87 1.74 1.57 1.34 1.27 1.24 1.24 1.37 1.50 1.62 1.59 1.59
1.64 1.63 1.64 1.65 1.65 1.72 1.78 1.88 1.99 2.13 2.14 2.17 2.08 2.12 2.24 2.32 2.51 2.53 2.49 2.48 2.48 2.40 2.25 2.12 1.85 1.64 1.62 1.72 1.79 1.66 1.69 1.75 1.67 1.62 1.46 1.37 1.25 1.30 1.39 1.42 1.46 1.39 1.29
1.49 1.52 1.61 1.55 1.53 1.58 1.66 1.78 1.87 1.90 1.95 1.90 1.83 1.88 2.01 2.08 2.22 2.33 2.42 2.33 2.37 2.35 2.32 2.26 2.03 1.82 1.72 1.73 1.82 1.77 1.64 1.63 1.64 1.71 1.53 1.43 1.33 1.25 1.35 1.36 1.43 1.50 1.41
1.48 1.52 1.61 1.67 1.56 1.47 1.55 1.62 1.70 1.73 1.72 1.62 1.60 1.68 1.76 1.85 1.95 2.05 2.13 2.20 2.25 2.24 2.33 2.30 2.10 1.91 1.75 1.70 1.75 1.69 1.62 1.69 1.59 1.70 1.66 1.51 1.45 1.34 1.35 1.35 1.33 1.47 1.49
1.35 1.35 1.45 1.53 1.55 1.48 1.41 1.39 1.40 1.57 1.59 1.51 1.40 1.39 1.43 1.47 1.60 1.74 1.82 1.95 2.11 2.26 2.35 2.36 2.20 1.96 1.78 1.73 1.80 1.85 1.82 1.71 1.70 1.62 1.66 1.62 1.60 1.56 1.44 1.40 1.31 1.32 1.43
1.18 1.22 1.36 1.50 1.55 1.51 1.51 1.49 1.38 1.41 1.48 1.52 1.47 1.35 1.25 1.26 1.41 1.52 1.57 1.78 1.98 2.14 2.27 2.33 2.23 2.05 1.89 1.82 1.77 1.76 1.84 1.91 1.90 1.75 1.69 1.59 1.56 1.42 1.29 1.31 1.30 1.25 1.24
1.08 1.07 1.15 1.28 1.41 1.38 1.59 1.63 1.51 1.37 1.37 1.39 1.40 1.38 1.39 1.36 1.24 1.22 1.31 1.46 1.67 1.85 2.01 2.12 2.14 1.96 1.78 1.76 1.84 1.85 1.84 1.90 1.93 1.79 1.73 1.78 1.72 1.60 1.43 1.29 1.35 1.29 1.23
1.07 1.06 1.12 1.23 1.35 1.54 1.66 1.48 1.54 1.46 1.39 1.39 1.35 1.35 1.38 1.36 1.43 1.28 1.26 1.27 1.26 1.42 1.67 1.88 1.90 1.80 1.84 1.79 1.79 1.76 1.73 1.71 1.73 1.76 1.78 1.79 1.76 1.66 1.49 1.41 1.50 1.43 1.37
1.06 1.08 1.14 1.21 1.28 1.50 1.61 1.44 1.62 1.62 1.57 1.50 1.44 1.48 1.53 1.54 1.47 1.59 1.55 1.43 1.30 1.26 1.37 1.31 1.37 1.67 1.82 1.89 1.91 1.92 1.95 1.84 1.75 1.76 1.71 1.73 1.61 1.56 1.47 1.39 1.47 1.40 1.36
1.05 1.07 1.07 1.08 1.10 1.20 1.36 1.30 1.45 1.54 1.63 1.61 1.47 1.44 1.49 1.50 1.76 1.87 1.68 1.58 1.46 1.36 1.55 1.58 1.56 1.65 1.77 1.81 1.81 1.86 1.92 1.87 1.77 1.70 1.60 1.52 1.45 1.53 1.61 1.52 1.47 1.55 1.51
1.10 1.03 1.00 0.97 0.98 1.01 1.23 1.14 1.26 1.30 1.46 1.60 1.56 1.49 1.66 1.59 1.67 1.68 1.56 1.70 1.60 1.43 1.36 1.34 1.33 1.40 1.44 1.54 1.64 1.61 1.74 1.78 1.68 1.70 1.55 1.49 1.47 1.57 1.64 1.54 1.40 1.40 1.48

GEFSMA_prec_meanprecacc_366.txt.gz
Total_Precipitation_Accumulation
1.29 1.27 1.24 1.36 1.34 1.32 1.39 1.35 1.17 1.20 1.20 1.07 1.04 1.08 1.18 1.24 1.38 1.48 1.84 2.50 3.24 3.97 4.18 3.88 3.42 3.06 2.92 2.83 2.74 2.67 2.55 2.53 2.66 2.84 2.78 2.88 3.15 3.18 3.17 3.51 3.73 4.00 4.08
1.07 1.17 1.27 1.40 1.31 1.32 1.39 1.29 1.23 1.27 1.29 1.20 1.12 1.13 1.14 1.21 1.31 1.43 1.58 1.98 2.45 3.16 3.90 4.06 3.74 3.36 3.12 3.04 3.03 3.03 2.80 2.62 2.58 2.76 2.80 2.73 2.88 2.94 2.89 3.10 3.43 3.72 4.15
1.06 1.15 1.24 1.32 1.32 1.30 1.31 1.36 1.39 1.32 1.22 1.17 1.21 1.15 1.08 1.11 1.30 1.43 1.51 1.71 1.81 2.02 2.81 3.63 3.89 3.70 3.48 3.49 3.43 3.26 3.07 2.91 2.74 2.76 2.84 2.76 2.84 2.76 2.78 2.88 2.97 3.12 3.67
1.08 1.32 1.37 1.25 1.32 1.44 1.51 1.58 1.56 1.47 1.37 1.35 1.37 1.30 1.23 1.26 1.40 1.51 1.47 1.46 1.54 1.50 1.83 2.44 3.00 3.36 3.69 3.85 3.86 3.63 3.39 3.22 2.92 2.82 2.81 2.80 2.85 2.66 2.67 2.73 2.74 2.87 3.12
1.22 1.49 1.59 1.43 1.39 1.60 1.62 1.49 1.53 1.61 1.60 1.66 1.50 1.49 1.50 1.54 1.52 1.43 1.42 1.47 1.55 1.57 1.66 1.66 1.96 2.36 3.05 3.62 3.97 4.16 3.79 3.50 3.13 2.86 2.77 2.61 2.67 2.60 2.53 2.51 2.50 2.68 2.77
1.46 1.68 1.86 1.78 1.67 1.82 1.86 1.72 1.85 1.95 1.90 1.99 1.80 1.66 1.62 1.62 1.56 1.56 1.51 1.57 1.69 1.58 1.62 1.62 1.64 1.50 1.94 2.70 3.41 3.96 4.04 3.84 3.47 3.05 2.90 2.61 2.70 2.61 2.41 2.31 2.39 2.56 2.68
1.92 2.05 2.05 2.28 2.30 2.26 2.29 2.23 2.42 2.52 2.28 2.12 2.48 2.40 1.96 1.62 1.50 1.58 1.67 1.74 1.86 1.87 1.83 1.84 1.81 1.56 1.48 1.81 2.50 3.50 3.81 3.81 3.63 3.31 3.21 2.94 2.71 2.52 2.44 2.37 2.35 2.32 2.51
2.28 2.18 2.29 2.54 2.54 2.62 2.70 2.56 2.75 2.93 2.66 2.36 2.85 3.33 2.88 2.37 1.72 1.46 1.57 1.73 1.94 1.98 1.91 1.79 1.82 1.79 1.71 1.75 1.90 2.63 3.26 3.64 3.65 3.51 3.39 3.32 2.80 2.55 2.49 2.42 2.36 2.30 2.27
2.64 2.57 2.55 2.69 2.72 2.78 2.94 2.95 2.93 3.11 3.11 2.79 2.75 3.35 3.35 2.96 2.48 1.87 1.69 1.76 1.95 2.05 2.08 2.03 1.87 1.90 1.84 1.92 2.00 1.91 2.22 2.91 3.49 3.53 3.45 3.42 3.15 2.81 2.58 2.53 2.47 2.33 2.15
2.77 2.71 2.73 2.83 2.87 2.85 2.92 2.92 2.90 3.23 3.53 3.37 3.08 2.81 2.75 2.76 2.83 2.47 2.02 1.85 1.95 2.03 2.14 2.05 2.07 2.16 2.13 2.12 2.09 1.82 1.70 1.96 2.60 3.15 3.30 3.40 3.33 3.09 2.80 2.71 2.70 2.49 2.33
2.57 2.44 2.55 2.75 2.80 2.82 2.83 2.97 3.04 3.32 3.40 3.38 3.31 3.19 2.99 2.77 2.37 2.46 2.42 2.18 2.10 1.98 2.06 2.22 2.30 2.34 2.29 2.44 2.56 2.02 1.65 1.61 1.99 2.57 3.07 3.33 3.48 3.51 3.27 2.97 2.81 2.76 2.70
2.51 2.31 2.35 2.45 2.58 2.68 2.68 2.73 2.90 3.04 3.28 3.43 3.38 3.23 3.24 3.20 2.95 2.71 2.39 2.27 2.38 2.23 2.08 2.06 2.15 2.22 2.37 2.51 2.43 2.24 1.73 1.57 1.70 1.89 2.27 2.83 3.30 3.64 3.61 3.45 3.23 3.07 3.05
2.47 2.42 2.30 2.32 2.37 2.44 2.59 2.82 2.84 2.90 3.06 3.25 3.27 3.22 3.21 3.07 3.01 2.99 2.74 2.39 2.29 2.18 2.09 2.04 2.01 2.07 2.13 2.25 2.30 2.23 1.81 1.70 1.60 1.57 1.62 1.84 2.42 2.98 3.41 3.68 3.69 3.49 3.47
2.03 2.01 2.06 2.13 2.24 2.31 2.41 2.61 2.74 2.77 2.82 2.85 2.85 3.03 3.15 3.04 2.85 2.79 2.80 2.85 2.59 2.33 2.13 2.02 1.96 1.94 1.98 2.00 2.14 2.17 1.75 1.67 1.57 1.47 1.41 1.34 1.55 1.92 2.48 2.93 3.13 3.23 3.47
1.65 1.64 1.68 1.82 2.00 2.12 2.18 2.31 2.49 2.50 2.61 2.64 2.69 2.74 2.75 2.82 2.71 2.54 2.53 2.66 2.81 2.59 2.38 2.16 1.97 1.77 1.80 1.78 1.89 1.66 1.63 1.67 1.61 1.48 1.34 1.25 1.24 1.39 1.72 2.12 2.35 2.33 2.39
1.66 1.67 1.64 1.64 1.74 1.82 1.93 2.11 2.22 2.30 2.39 2.39 2.40 2.45 2.49 2.54 2.54 2.49 2.48 2.54 2.57 2.55 2.42 2.16 1.88 1.63 1.67 1.71 1.89 1.63 1.69 1.91 1.80 1.62 1.38 1.30 1.26 1.27 1.39 1.53 1.65 1.61 1.61
1.73 1.69 1.68 1.68 1.67 1.73 1.80 1.89 2.00 2.13 2.14 2.17 2.08 2.12 2.24 2.32 2.51 2.54 2.50 2.49 2.49 2.42 2.28 2.14 1.88 1.67 1.64 1.74 1.82 1.69 1.72 1.78 1.70 1.66 1.49 1.39 1.27 1.32 1.42 1.44 1.49 1.42 1.32
1.57 1.57 1.65 1.59 1.57 1.60 1.68 1.79 1.87 1.90 1.95 1.90 1.83 1.88 2.01 2.08 2.22 2.34 2.44 2.36 2.39 2.37 2.33 2.28 2.05 1.84 1.75 1.75 1.84 1.80 1.67 1.64 1.66 1.74 1.55 1.44 1.34 1.27 1.38 1.39 1.48 1.55 1.44
1.53 1.57 1.65 1.70 1.59 1.49 1.56 1.63 1.71 1.73 1.72 1.62 1.60 1.68 1.76 1.86 1.96 2.06 2.15 2.23 2.27 2.26 2.35 2.31 2.12 1.94 1.78 1.73 1.78 1.72 1.65 1.71 1.61 1.72 1.68 1.53 1.46 1.35 1.36 1.37 1.36 1.49 1.49
1.39 1.39 1.48 1.56 1.57 1.50 1.43 1.40 1.41 1.57 1.59 1.51 1.40 1.39 1.43 1.47 1.61 1.75 1.85 1.98 2.14 2.28 2.37 2.38 2.23 1.99 1.81 1.77 1.85 1.89 1.86 1.74 1.73 1.64 1.68 1.63 1.61 1.56 1.44 1.41 1.32 1.33 1.43
1.21 1.23 1.37 1.52 1.56 1.52 1.52 1.50 1.39 1.41 1.48 1.52 1.47 1.35 1.25 1.27 1.42 1.54 1.60 1.82 2.01 2.16 2.29 2.35 2.25 2.08 1.92 1.85 1.81 1.81 1.88 1.96 1.95 1.79 1.72 1.61 1.56 1.42 1.29 1.31 1.30 1.25 1.25
1.11 1.09 1.16 1.29 1.42 1.39 1.60 1.65 1.52 1.38 1.38 1.40 1.40 1.39 1.39 1.37 1.26 1.25 1.35 1.51 1.73 1.89 2.04 2.15 2.17 2.00 1.82 1.79 1.86 1.89 1.89 1.96 1.99 1.83 1.76 1.80 1.73 1.60 1.44 1.29 1.36 1.29 1.24
1.10 1.07 1.13 1.24 1.36 1.55 1.68 1.50 1.56 1.49 1.41 1.41 1.36 1.36 1.38 1.36 1.45 1.31 1.29 1.31 1.32 1.47 1.70 1.90 1.92 1.82 1.87 1.82 1.82 1.79 1.77 1.76 1.79 1.81 1.81 1.82 1.77 1.67 1.50 1.41 1.50 1.43 1.38
1.08 1.10 1.15 1.22 1.30 1.51 1.63 1.46 1.65 1.65 1.60 1.53 1.47 1.50 1.54 1.55 1.48 1.61 1.58 1.47 1.35 1.31 1.41 1.33 1.39 1.68 1.83 1.91 1.94 1.95 1.98 1.88 1.79 1.81 1.75 1.77 1.64 1.57 1.48 1.39 1.47 1.40 1.36
1.09 1.10 1.09 1.10 1.11 1.22 1.38 1.32 1.47 1.55 1.64 1.63 1.50 1.47 1.52 1.52 1.77 1.89 1.72 1.62 1.50 1.42 1.60 1.62 1.59 1.67 1.79 1.83 1.84 1.89 1.95 1.91 1.81 1.73 1.63 1.57 1.50 1.56 1.62 1.52 1.48 1.56 1.52
1.13 1.06 1.02 0.98 0.99 1.02 1.25 1.16 1.27 1.31 1.46 1.61 1.57 1.51 1.70 1.63 1.70 1.71 1.60 1.74 1.64 1.49 1.42 1.39 1.37 1.43 1.47 1.57 1.66 1.64 1.77 1.82 1.73 1.75 1.58 1.53 1.52 1.62 1.67 1.56 1.42 1.42 1.50

GEFSMA_prec_meanprecacc_372.txt.gz
Total_Precipitation_Accumulation
1.30 1.28 1.25 1.37 1.37 1.36 1.43 1.38 1.21 1.28 1.29 1.15 1.12 1.17 1.29 1.37 1.49 1.58 1.92 2.58 3.33 4.09 4.29 4.00 3.55 3.21 3.08 2.98 2.88 2.80 2.67 2.64 2.75 2.91 2.83 2.93 3.19 3.21 3.19 3.53 3.76 4.05 4.13
1.09 1.19 1.28 1.41 1.32 1.33 1.40 1.31 1.25 1.31 1.35 1.26 1.19 1.20 1.23 1.32 1.42 1.53 1.67 2.05 2.52 3.25 4.00 4.17 3.87 3.54 3.32 3.25 3.22 3.18 2.91 2.70 2.62 2.79 2.83 2.76 2.91 2.96 2.92 3.13 3.47 3.76 4.19
1.08 1.17 1.26 1.33 1.32 1.31 1.32 1.36 1.40 1.34 1.25 1.22 1.27 1.22 1.16 1.19 1.39 1.52 1.59 1.78 1.87 2.10 2.91 3.74 4.03 3.86 3.62 3.64 3.58 3.40 3.16 2.96 2.77 2.78 2.86 2.78 2.85 2.78 2.81 2.91 3.01 3.15 3.71
1.09 1.33 1.38 1.26 1.32 1.45 1.52 1.59 1.57 1.49 1.38 1.38 1.40 1.34 1.29 1.32 1.46 1.57 1.53 1.52 1.61 1.57 1.93 2.57 3.14 3.51 3.83 3.97 3.95 3.73 3.47 3.27 2.96 2.84 2.84 2.82 2.87 2.68 2.69 2.76 2.77 2.91 3.16
1.23 1.49 1.60 1.44 1.39 1.61 1.63 1.50 1.54 1.63 1.63 1.69 1.53 1.52 1.54 1.59 1.58 1.51 1.50 1.55 1.64 1.66 1.73 1.75 2.08 2.49 3.18 3.74 4.08 4.27 3.89 3.58 3.18 2.90 2.80 2.64 2.69 2.63 2.56 2.53 2.53 2.72 2.81
1.48 1.69 1.87 1.78 1.68 1.83 1.88 1.74 1.86 1.97 1.93 2.02 1.83 1.69 1.66 1.66 1.62 1.63 1.60 1.67 1.76 1.65 1.68 1.69 1.72 1.60 2.05 2.83 3.63 4.12 4.16 3.91 3.52 3.10 2.95 2.66 2.74 2.64 2.43 2.33 2.41 2.60 2.72
1.95 2.07 2.06 2.28 2.31 2.27 2.31 2.26 2.45 2.54 2.30 2.14 2.51 2.43 2.00 1.66 1.56 1.64 1.75 1.81 1.92 1.92 1.89 1.89 1.86 1.61 1.54 1.91 2.71 3.65 3.93 3.91 3.69 3.36 3.26 3.00 2.76 2.56 2.49 2.40 2.38 2.35 2.54
2.32 2.21 2.31 2.55 2.56 2.64 2.72 2.58 2.77 2.94 2.67 2.38 2.87 3.36 2.92 2.41 1.76 1.50 1.63 1.78 1.98 2.00 1.94 1.83 1.86 1.83 1.75 1.80 2.01 2.76 3.37 3.79 3.81 3.60 3.46 3.37 2.84 2.58 2.52 2.45 2.40 2.33 2.31
2.66 2.60 2.57 2.71 2.74 2.81 2.97 2.97 2.95 3.13 3.12 2.80 2.77 3.37 3.37 2.98 2.50 1.90 1.72 1.79 1.98 2.07 2.11 2.06 1.90 1.94 1.88 1.95 2.06 2.00 2.33 3.02 3.60 3.63 3.53 3.47 3.18 2.84 2.61 2.57 2.51 2.36 2.19
2.79 2.75 2.75 2.84 2.88 2.87 2.94 2.94 2.92 3.25 3.54 3.38 3.10 2.83 2.76 2.77 2.84 2.48 2.04 1.86 1.97 2.04 2.15 2.07 2.09 2.18 2.17 2.15 2.13 1.87 1.76 2.03 2.68 3.23 3.38 3.46 3.36 3.12 2.82 2.73 2.74 2.52 2.36
2.59 2.47 2.57 2.76 2.81 2.83 2.84 2.99 3.06 3.34 3.42 3.39 3.33 3.21 3.00 2.78 2.38 2.46 2.43 2.18 2.11 1.99 2.07 2.22 2.30 2.35 2.30 2.46 2.58 2.04 1.67 1.63 2.03 2.61 3.12 3.38 3.52 3.56 3.31 2.99 2.85 2.82 2.75
2.54 2.33 2.37 2.47 2.59 2.70 2.69 2.75 2.91 3.06 3.30 3.45 3.39 3.24 3.25 3.21 2.95 2.72 2.40 2.27 2.39 2.23 2.08 2.06 2.15 2.23 2.37 2.52 2.45 2.25 1.74 1.57 1.71 1.90 2.28 2.86 3.33 3.67 3.66 3.48 3.26 3.13 3.13
2.51 2.46 2.33 2.34 2.40 2.45 2.61 2.84 2.86 2.91 3.08 3.26 3.28 3.23 3.22 3.08 3.02 3.00 2.75 2.39 2.29 2.19 2.10 2.04 2.01 2.08 2.15 2.26 2.32 2.25 1.83 1.70 1.60 1.57 1.62 1.85 2.43 3.00 3.44 3.72 3.73 3.54 3.57
2.07 2.06 2.11 2.17 2.27 2.33 2.43 2.63 2.75 2.78 2.84 2.87 2.86 3.04 3.16 3.05 2.86 2.79 2.80 2.86 2.59 2.33 2.13 2.02 1.97 1.95 2.00 2.02 2.16 2.19 1.78 1.68 1.57 1.47 1.41 1.34 1.56 1.93 2.49 2.96 3.19 3.29 3.56
1.69 1.68 1.73 1.88 2.04 2.16 2.22 2.34 2.52 2.53 2.63 2.66 2.70 2.75 2.76 2.83 2.72 2.54 2.53 2.66 2.81 2.59 2.38 2.17 1.98 1.79 1.82 1.80 1.91 1.68 1.65 1.71 1.63 1.49 1.35 1.25 1.25 1.40 1.74 2.15 2.40 2.39 2.45
1.69 1.70 1.69 1.70 1.79 1.86 1.97 2.13 2.25 2.33 2.41 2.41 2.42 2.47 2.49 2.54 2.54 2.49 2.48 2.54 2.57 2.55 2.43 2.17 1.88 1.64 1.69 1.73 1.92 1.65 1.70 1.93 1.83 1.65 1.41 1.33 1.29 1.30 1.42 1.55 1.67 1.64 1.64
1.76 1.73 1.73 1.74 1.72 1.76 1.83 1.92 2.03 2.17 2.17 2.20 2.10 2.13 2.25 2.33 2.51 2.54 2.50 2.49 2.49 2.42 2.28 2.15 1.88 1.67 1.65 1.76 1.84 1.72 1.74 1.80 1.72 1.68 1.52 1.42 1.29 1.33 1.43 1.46 1.51 1.44 1.35
1.59 1.60 1.69 1.62 1.59 1.62 1.70 1.81 1.90 1.92 1.96 1.92 1.84 1.90 2.01 2.08 2.22 2.34 2.44 2.36 2.39 2.37 2.34 2.28 2.06 1.85 1.76 1.77 1.86 1.82 1.70 1.67 1.68 1.76 1.57 1.47 1.37 1.28 1.39 1.40 1.49 1.57 1.45
1.56 1.60 1.67 1.72 1.60 1.50 1.58 1.65 1.72 1.75 1.73 1.63 1.61 1.69 1.77 1.86 1.96 2.07 2.15 2.23 2.27 2.26 2.35 2.32 2.12 1.94 1.79 1.73 1.79 1.74 1.68 1.74 1.64 1.75 1.72 1.57 1.49 1.37 1.37 1.38 1.37 1.49 1.50
1.41 1.40 1.50 1.57 1.58 1.51 1.45 1.42 1.42 1.59 1.60 1.51 1.40 1.39 1.43 1.48 1.61 1.75 1.85 1.98 2.14 2.28 2.37 2.39 2.23 1.99 1.82 1.77 1.85 1.91 1.89 1.79 1.77 1.66 1.71 1.67 1.65 1.59 1.46 1.42 1.33 1.33 1.43
1.22 1.25 1.39 1.53 1.57 1.53 1.53 1.51 1.40 1.42 1.49 1.53 1.47 1.36 1.25 1.27 1.43 1.54 1.61 1.83 2.02 2.17 2.29 2.35 2.26 2.09 1.93 1.85 1.82 1.83 1.91 1.99 1.99 1.82 1.76 1.65 1.60 1.46 1.32 1.33 1.31 1.26 1.25
1.13 1.10 1.17 1.30 1.43 1.40 1.61 1.66 1.53 1.38 1.38 1.40 1.41 1.39 1.40 1.37 1.26 1.25 1.36 1.52 1.74 1.90 2.05 2.15 2.17 2.00 1.82 1.80 1.88 1.91 1.92 2.00 2.04 1.88 1.80 1.83 1.77 1.63 1.46 1.31 1.36 1.30 1.24
1.11 1.09 1.14 1.25 1.37 1.56 1.69 1.51 1.57 1.49 1.42 1.41 1.37 1.37 1.39 1.37 1.45 1.31 1.29 1.32 1.32 1.47 1.71 1.91 1.92 1.82 1.87 1.83 1.83 1.81 1.79 1.80 1.84 1.87 1.85 1.84 1.80 1.70 1.52 1.43 1.51 1.44 1.38
1.09 1.11 1.16 1.23 1.30 1.52 1.64 1.47 1.65 1.65 1.61 1.54 1.48 1.50 1.54 1.55 1.49 1.62 1.59 1.47 1.36 1.31 1.41 1.34 1.39 1.69 1.84 1.92 1.95 1.96 2.00 1.91 1.84 1.86 1.79 1.80 1.67 1.60 1.50 1.41 1.49 1.42 1.37
1.10 1.11 1.10 1.11 1.12 1.23 1.39 1.33 1.48 1.56 1.65 1.63 1.50 1.47 1.52 1.53 1.79 1.91 1.73 1.62 1.51 1.42 1.60 1.62 1.59 1.67 1.80 1.84 1.85 1.91 1.98 1.94 1.86 1.78 1.68 1.61 1.54 1.59 1.65 1.55 1.49 1.57 1.53
1.15 1.07 1.03 0.99 1.00 1.03 1.26 1.17 1.28 1.32 1.47 1.61 1.57 1.51 1.70 1.64 1.71 1.73 1.61 1.74 1.65 1.49 1.43 1.39 1.38 1.43 1.48 1.57 1.68 1.65 1.80 1.85 1.77 1.80 1.62 1.57 1.58 1.67 1.72 1.59 1.43 1.43 1.51